FW2979 Weather Reports


time (UTC)temp
C
wind
direction
speed
KPH
gust
KPH
rain 1hr
cm
rain 24hr
cm
rain mn
cm
humidity
%
barometer
mb
20200531072640 2 217 14.5 17.7 0.00 0.00 0.00 88 846.5
20200531072540 2 230 24.1 25.7 0.00 0.00 0.00 87 846.5
20200531072440 2 239 20.9 24.1 0.00 0.00 0.00 90 846.5
20200531072340 2 243 25.7 29.0 0.00 0.00 0.00 89 846.3
20200531072241 2 232 14.5 19.3 0.00 0.00 0.00 89 846.5
20200531072140 2 255 20.9 24.1 0.00 0.00 0.00 88 846.5
20200531072040 1 243 20.9 27.4 0.00 0.00 0.00 90 846.3
20200531071940 1 206 27.4 33.8 0.00 0.00 0.00 90 846.2
20200531071840 1 244 19.3 20.9 0.00 0.00 0.00 90 846.3
20200531071740 1 246 20.9 22.5 0.00 0.00 0.00 90 846.5
20200531071640 1 246 25.7 29.0 0.00 0.00 0.00 88 846.2
20200531071540 1 258 24.1 27.4 0.00 0.00 0.00 87 846.2
20200531071440 1 260 27.4 30.6 0.00 0.00 0.00 88 846.2
20200531071340 1 244 29.0 32.2 0.00 0.00 0.00 88 846.1
20200531071240 1 247 24.1 30.6 0.00 0.00 0.00 90 846.1
20200531071140 1 237 32.2 35.4 0.00 0.00 0.00 90 846.1
20200531071040 1 249 35.4 40.2 0.00 0.00 0.00 92 846.1
20200531070940 1 241 16.1 19.3 0.00 0.00 0.00 91 846.3
20200531070840 1 252 19.3 19.3 0.00 0.00 0.00 92 846.3
20200531070740 1 270 20.9 29.0 0.00 0.00 0.00 91 846.2
20200531070640 1 247 29.0 30.6 0.00 0.00 0.00 91 846.2
20200531070540 1 241 27.4 30.6 0.00 0.00 0.00 92 846.2
20200531070440 1 236 24.1 27.4 0.00 0.00 0.00 91 846.2
20200531070340 1 261 20.9 25.7 0.00 0.00 0.00 91 846.2
20200531070240 1 241 24.1 24.1 0.00 0.00 0.00 90 846.3
20200531070140 1 253 27.4 30.6 0.00 0.00 0.00 91 846.2
20200531070040 1 256 20.9 25.7 0.00 0.00 0.00 90 846.2
20200531065940 1 257 33.8 35.4 0.00 0.00 0.00 92 846.1
20200531065840 1 242 24.1 27.4 0.00 0.00 0.00 94 846.2
20200531065740 1 235 29.0 33.8 0.00 0.00 0.00 93 846.2
20200531065640 1 259 33.8 37.0 0.00 0.00 0.00 93 846.1
20200531065540 1 272 29.0 33.8 0.00 0.00 0.00 93 846.1
20200531065440 1 235 22.5 25.7 0.00 0.00 0.00 94 846.2
20200531065340 1 262 25.7 27.4 0.00 0.00 0.00 93 846.2
20200531065240 1 230 17.7 20.9 0.00 0.00 0.00 93 846.2
20200531065140 1 256 30.6 33.8 0.00 0.00 0.00 94 846.1
20200531064940 1 242 27.4 30.6 0.00 0.00 0.00 93 846.1
20200531064840 1 271 22.5 30.6 0.00 0.00 0.00 93 846.1
20200531064740 1 264 40.2 43.5 0.00 0.00 0.00 93 845.9
20200531064640 1 258 32.2 40.2 0.00 0.00 0.00 94 846.1
20200531064540 1 284 27.4 35.4 0.00 0.00 0.00 94 846.1
20200531064440 1 215 12.9 17.7 0.00 0.00 0.00 94 846.3
20200531064340 1 231 20.9 25.7 0.00 0.00 0.00 93 846.2
20200531064240 1 258 30.6 33.8 0.00 0.00 0.00 94 846.1
20200531064140 1 253 37.0 40.2 0.00 0.00 0.00 94 845.9
20200531064040 1 240 24.1 25.7 0.00 0.00 0.00 94 846.2
20200531063940 1 273 25.7 32.2 0.00 0.00 0.00 94 846.1
20200531063840 1 243 19.3 20.9 0.00 0.00 0.00 94 846.2
20200531063740 1 272 29.0 41.8 0.00 0.00 0.00 94 846.1
20200531063640 1 252 14.5 19.3 0.00 0.00 0.00 93 846.3
20200531063540 1 239 24.1 29.0 0.00 0.00 0.00 94 846.1
20200531063440 1 260 37.0 40.2 0.00 0.00 0.00 95 846.1
20200531063340 1 247 24.1 24.1 0.00 0.00 0.00 94 846.2
20200531063240 1 250 20.9 24.1 0.00 0.00 0.00 94 846.2
20200531063140 1 260 40.2 43.5 0.00 0.00 0.00 94 845.8
20200531063041 1 247 40.2 43.5 0.00 0.00 0.00 95 845.9
20200531062940 1 247 29.0 37.0 0.00 0.00 0.00 95 846.1
20200531062840 1 258 27.4 32.2 0.00 0.00 0.00 95 846.1
20200531062740 1 258 25.7 30.6 0.00 0.00 0.00 95 846.1
20200531062640 1 286 35.4 40.2 0.00 0.00 0.00 95 846.1
20200531062540 1 213 27.4 32.2 0.00 0.00 0.00 95 845.9
20200531062440 1 264 40.2 43.5 0.00 0.00 0.00 95 845.7
20200531062340 1 259 41.8 45.1 0.00 0.00 0.00 95 845.7
20200531062240 1 242 30.6 35.4 0.00 0.00 0.00 95 846.1
20200531062140 1 270 25.7 33.8 0.00 0.00 0.00 95 845.8
20200531062040 1 281 27.4 30.6 0.00 0.00 0.00 94 846.1
20200531061940 1 245 19.3 20.9 0.00 0.00 0.00 94 846.2
20200531061840 1 255 32.2 40.2 0.00 0.00 0.00 95 846.1
20200531061740 0 226 14.5 17.7 0.00 0.00 0.00 95 846.1
20200531061640 0 267 19.3 22.5 0.00 0.00 0.00 95 846.1
20200531061540 0 236 33.8 38.6 0.00 0.00 0.00 95 845.9
20200531061440 0 264 24.1 29.0 0.00 0.00 0.00 95 846.1
20200531061340 0 263 24.1 27.4 0.00 0.00 0.00 95 846.1
20200531061240 0 260 27.4 32.2 0.00 0.00 0.00 95 846.1
20200531061140 0 244 38.6 41.8 0.00 0.00 0.00 95 845.7
20200531061040 0 268 25.7 35.4 0.00 0.00 0.00 95 845.8
20200531060940 0 261 32.2 45.1 0.00 0.00 0.00 94 845.9
20200531060840 0 246 30.6 43.5 0.00 0.00 0.00 94 845.7
20200531060740 0 270 35.4 40.2 0.00 0.00 0.00 95 845.7
20200531060640 0 250 16.1 20.9 0.00 0.00 0.00 95 846.1
20200531060540 0 265 37.0 45.1 0.00 0.00 0.00 95 845.7
20200531060440 0 216 22.5 25.7 0.00 0.00 0.00 95 846.1
20200531060340 0 245 41.8 43.5 0.00 0.00 0.00 95 845.8
20200531060240 0 233 19.3 22.5 0.00 0.00 0.00 95 846.1
20200531060040 0 234 40.2 45.1 0.00 0.00 0.00 96 845.7
20200531055940 0 244 27.4 30.6 0.00 0.00 0.00 95 845.9
20200531055840 0 256 33.8 35.4 0.00 0.00 0.00 95 845.9
20200531055740 0 265 41.8 49.9 0.00 0.00 0.00 96 845.7
20200531055640 0 252 33.8 37.0 0.00 0.00 0.00 96 845.8
20200531055540 0 255 30.6 33.8 0.00 0.00 0.00 96 845.9
20200531055440 0 277 22.5 30.6 0.00 0.00 0.00 96 846.1
20200531055340 0 262 33.8 35.4 0.00 0.00 0.00 96 845.9
20200531055240 0 258 22.5 32.2 0.00 0.00 0.00 96 846.1
20200531055140 0 244 22.5 25.7 0.00 0.00 0.00 96 846.1
20200531055040 0 278 29.0 33.8 0.00 0.00 0.00 96 846.1
20200531054940 0 209 16.1 20.9 0.00 0.00 0.00 96 846.1
20200531054843 0 252 27.4 30.6 0.00 0.00 0.00 96 845.8
20200531054740 0 256 22.5 27.4 0.00 0.00 0.00 97 846.1
20200531054640 0 227 20.9 30.6 0.00 0.00 0.00 97 845.9
20200531054540 0 226 16.1 17.7 0.00 0.00 0.00 97 846.1
20200531054440 0 299 9.7 12.9 0.00 0.00 0.00 97 846.1
20200531054340 0 239 14.5 24.1 0.00 0.00 0.00 97 846.1
20200531054240 0 221 19.3 22.5 0.00 0.00 0.00 97 846.1
20200531054140 0 221 16.1 24.1 0.00 0.00 0.00 97 846.1
20200531054041 0 238 27.4 30.6 0.00 0.00 0.00 96 845.9
20200531053940 0 256 24.1 30.6 0.00 0.00 0.00 96 845.9
20200531053840 0 265 19.3 25.7 0.00 0.00 0.00 96 845.9
20200531053740 0 269 29.0 40.2 0.00 0.00 0.00 96 845.7
20200531053640 0 266 27.4 35.4 0.00 0.00 0.00 96 845.8
20200531053540 0 248 29.0 32.2 0.00 0.00 0.00 96 845.8
20200531053440 0 265 30.6 35.4 0.00 0.00 0.00 96 845.7
20200531053340 0 254 38.6 45.1 0.00 0.00 0.00 96 845.3
20200531053240 0 248 41.8 45.1 0.00 0.00 0.00 96 845.5
20200531053140 0 279 29.0 51.5 0.00 0.00 0.00 96 845.3
20200531053040 0 287 32.2 35.4 0.00 0.00 0.00 96 845.8
20200531052940 0 245 19.3 25.7 0.00 0.00 0.00 96 845.8
20200531052840 0 256 27.4 35.4 0.00 0.00 0.00 96 845.7
20200531052740 0 261 24.1 30.6 0.00 0.00 0.00 96 845.8
20200531052640 0 278 41.8 51.5 0.00 0.00 0.00 96 845.7
20200531052540 0 257 40.2 49.9 0.00 0.00 0.00 96 845.3
20200531052440 0 247 37.0 40.2 0.00 0.00 0.00 96 845.7
20200531052340 0 252 35.4 40.2 0.00 0.00 0.00 96 845.7
20200531052240 0 248 32.2 38.6 0.00 0.00 0.00 96 845.7
20200531052140 0 246 41.8 43.5 0.00 0.00 0.00 96 845.5
20200531052040 0 228 32.2 40.2 0.00 0.00 0.00 96 845.7
20200531051940 0 278 30.6 43.5 0.00 0.00 0.00 96 845.4
20200531051840 0 228 20.9 29.0 0.00 0.00 0.00 96 845.7
20200531051740 0 264 46.7 51.5 0.00 0.00 0.00 96 845.4
20200531051640 0 279 19.3 24.1 0.00 0.00 0.00 96 845.8
20200531051540 0 244 35.4 38.6 0.00 0.00 0.00 96 845.5
20200531051440 0 242 30.6 33.8 0.00 0.00 0.00 96 845.7
20200531051340 0 204 9.7 12.9 0.00 0.00 0.00 96 845.8
20200531051240 0 270 45.1 53.1 0.00 0.00 0.00 96 845.1
20200531051140 0 245 32.2 40.2 0.00 0.00 0.00 96 845.5
20200531051040 0 255 43.5 49.9 0.00 0.00 0.00 97 845.4
20200531050940 0 256 49.9 53.1 0.00 0.00 0.00 97 845.3
20200531050840 0 245 45.1 49.9 0.00 0.00 0.00 97 845.4
20200531050740 0 271 37.0 45.1 0.00 0.00 0.00 97 845.4
20200531050640 0 271 38.6 45.1 0.00 0.00 0.00 97 845.3
20200531050540 0 259 30.6 33.8 0.00 0.00 0.00 97 845.7
20200531050440 0 229 33.8 40.2 0.00 0.00 0.00 97 845.5
20200531050340 0 254 29.0 30.6 0.00 0.00 0.00 97 845.7
20200531050240 0 260 16.1 19.3 0.00 0.00 0.00 97 845.9
20200531050140 0 245 32.2 41.8 0.00 0.00 0.00 97 845.7
20200531050040 0 251 33.8 38.6 0.00 0.00 0.00 97 845.7
20200531045940 0 267 30.6 45.1 0.00 0.00 0.00 97 845.7
20200531045840 0 254 37.0 43.5 0.00 0.00 0.00 98 845.5
20200531045740 0 245 24.1 32.2 0.00 0.00 0.00 98 845.8
20200531045640 0 243 40.2 45.1 0.00 0.00 0.00 98 845.5
20200531045540 0 281 30.6 46.7 0.00 0.00 0.00 98 845.5
20200531045440 0 295 22.5 29.0 0.00 0.00 0.00 98 845.8
20200531045340 0 205 32.2 35.4 0.00 0.00 0.00 98 845.7
20200531045240 0 203 19.3 25.7 0.00 0.00 0.00 98 845.8
20200531045140 0 281 33.8 43.5 0.00 0.00 0.00 98 845.4
20200531045040 0 263 25.7 43.5 0.00 0.00 0.00 98 845.3
20200531044940 0 262 20.9 29.0 0.00 0.00 0.00 98 845.8
20200531044840 0 259 22.5 27.4 0.00 0.00 0.00 98 845.8
20200531044740 0 235 30.6 33.8 0.00 0.00 0.00 98 845.7
20200531044640 0 266 45.1 56.3 0.00 0.00 0.00 98 845.3
20200531044540 0 241 38.6 43.5 0.00 0.00 0.00 98 845.5
20200531044440 0 265 32.2 35.4 0.00 0.00 0.00 98 845.7
20200531044340 0 265 27.4 35.4 0.00 0.00 0.00 98 845.7
20200531044240 0 248 32.2 40.2 0.00 0.00 0.00 98 845.7
20200531044140 0 279 19.3 29.0 0.00 0.00 0.00 98 845.7
20200531044040 0 233 19.3 22.5 0.00 0.00 0.00 98 845.7
20200531043940 0 271 19.3 29.0 0.00 0.00 0.00 98 845.8
20200531043840 0 230 17.7 19.3 0.00 0.00 0.00 98 845.8
20200531043740 0 216 17.7 22.5 0.00 0.00 0.00 97 845.8
20200531043640 0 246 40.2 43.5 0.00 0.00 0.00 97 845.4
20200531043540 0 269 46.7 57.9 0.00 0.00 0.00 98 845.0
20200531043440 0 252 40.2 43.5 0.00 0.00 0.00 98 845.5
20200531043340 0 265 30.6 32.2 0.00 0.00 0.00 98 845.7
20200531043240 0 254 25.7 27.4 0.00 0.00 0.00 98 845.8
20200531043140 0 244 14.5 17.7 0.00 0.00 0.00 98 845.7
20200531043041 0 255 24.1 33.8 0.00 0.00 0.00 98 845.5
20200531042940 0 278 33.8 46.7 0.00 0.00 0.00 98 845.3
20200531042840 0 255 38.6 46.7 0.00 0.00 0.00 98 845.4
20200531042740 0 263 46.7 51.5 0.00 0.00 0.00 98 845.1
20200531042640 0 276 29.0 35.4 0.00 0.00 0.00 98 845.4
20200531042540 0 282 25.7 35.4 0.00 0.00 0.00 98 845.5
20200531042440 0 276 30.6 46.7 0.00 0.00 0.00 98 845.3
20200531042340 0 274 37.0 45.1 0.00 0.00 0.00 98 845.3
20200531042240 0 240 33.8 41.8 0.00 0.00 0.00 98 845.5
20200531042140 0 274 37.0 41.8 0.00 0.00 0.00 98 845.4
20200531042040 0 286 33.8 51.5 0.00 0.00 0.00 98 845.0
20200531041940 0 258 30.6 41.8 0.00 0.00 0.00 98 845.7
20200531041840 0 226 30.6 35.4 0.00 0.00 0.00 98 845.5
20200531041740 0 258 30.6 40.2 0.00 0.00 0.00 98 845.3
20200531041640 0 249 32.2 38.6 0.00 0.00 0.00 98 845.5
20200531041540 0 239 43.5 48.3 0.00 0.00 0.00 98 845.3
20200531041440 0 261 43.5 49.9 0.00 0.00 0.00 98 845.4
20200531041340 0 245 41.8 45.1 0.00 0.00 0.00 98 845.3
20200531041240 0 263 40.2 43.5 0.00 0.00 0.00 98 845.4
20200531041140 0 260 45.1 51.5 0.00 0.00 0.00 98 845.4
20200531041040 0 253 45.1 48.3 0.00 0.00 0.00 98 845.4
20200531040940 0 259 38.6 43.5 0.00 0.00 0.00 98 845.5
20200531040840 0 255 32.2 43.5 0.00 0.00 0.00 98 845.7
20200531040740 0 284 43.5 49.9 0.00 0.00 0.00 98 845.4
20200531040640 0 257 22.5 30.6 0.00 0.00 0.00 98 845.7
20200531040540 0 277 32.2 43.5 0.00 0.00 0.00 98 845.4
20200531040440 0 287 46.7 57.9 0.00 0.00 0.00 98 845.3
20200531040340 0 265 40.2 48.3 0.00 0.00 0.00 98 845.1
20200531040140 0 261 32.2 38.6 0.00 0.00 0.00 98 845.4
20200531040040 0 207 22.5 33.8 0.00 0.00 0.00 98 845.7
20200531035940 0 236 29.0 35.4 0.00 0.00 0.00 98 845.7
20200531035840 0 258 33.8 41.8 0.00 0.00 0.00 98 845.7
20200531035740 0 238 40.2 45.1 0.00 0.00 0.00 98 845.7
20200531035640 0 237 30.6 33.8 0.00 0.00 0.00 98 845.7
20200531035540 0 243 27.4 33.8 0.00 0.00 0.00 98 845.7
20200531035440 0 216 33.8 37.0 0.00 0.00 0.00 98 845.7
20200531035340 0 263 24.1 32.2 0.00 0.00 0.00 98 845.7
20200531035241 0 240 24.1 25.7 0.00 0.00 0.00 98 845.8
20200531035141 0 243 27.4 29.0 0.00 0.00 0.00 98 845.8
20200531035040 0 239 38.6 41.8 0.00 0.00 0.00 98 845.4
20200531034941 0 261 22.5 33.8 0.00 0.00 0.00 98 845.7
20200531034841 0 227 35.4 40.2 0.00 0.00 0.00 98 845.5
20200531034740 0 212 20.9 29.0 0.00 0.00 0.00 98 845.8
20200531034640 0 274 17.7 22.5 0.00 0.00 0.00 98 845.8
20200531034540 0 241 33.8 40.2 0.00 0.00 0.00 98 845.7
20200531034440 0 254 37.0 43.5 0.00 0.00 0.00 98 845.5
20200531034340 0 255 37.0 46.7 0.00 0.00 0.00 97 845.7
20200531034240 0 201 29.0 37.0 0.00 0.00 0.00 97 845.7
20200531034140 0 246 24.1 29.0 0.00 0.00 0.00 97 845.7
20200531034040 0 236 24.1 27.4 0.00 0.00 0.00 97 845.8
20200531033940 0 236 37.0 38.6 0.00 0.00 0.00 97 845.5
20200531033840 0 263 29.0 33.8 0.00 0.00 0.00 97 845.7
20200531033740 0 252 22.5 27.4 0.00 0.00 0.00 97 845.7
20200531033640 0 256 38.6 45.1 0.00 0.00 0.00 97 845.7
20200531033540 0 255 30.6 32.2 0.00 0.00 0.00 97 845.7
20200531033440 0 247 24.1 38.6 0.00 0.00 0.00 97 845.7
20200531033340 0 294 22.5 38.6 0.00 0.00 0.00 97 845.4
20200531033240 0 240 32.2 37.0 0.00 0.00 0.00 97 845.7
20200531033140 0 251 38.6 41.8 0.00 0.00 0.00 97 845.5
20200531033040 0 280 17.7 22.5 0.00 0.00 0.00 97 845.7
20200531032940 0 299 17.7 27.4 0.00 0.00 0.00 97 845.7
20200531032840 0 248 25.7 32.2 0.00 0.00 0.00 97 845.7
20200531032740 0 245 24.1 25.7 0.00 0.00 0.00 97 845.7
20200531032640 0 249 37.0 41.8 0.00 0.00 0.00 97 845.7
20200531032540 0 234 25.7 30.6 0.00 0.00 0.00 97 845.7
20200531032440 0 252 24.1 27.4 0.00 0.00 0.00 97 845.8
20200531032340 0 225 25.7 29.0 0.00 0.00 0.00 97 845.7
20200531032240 0 248 27.4 37.0 0.00 0.00 0.00 96 845.7
20200531032140 0 242 25.7 32.2 0.00 0.00 0.00 96 845.7
20200531032040 0 243 14.5 20.9 0.00 0.00 0.00 96 845.7
20200531031940 0 229 32.2 38.6 0.00 0.00 0.00 96 845.7
20200531031840 0 261 56.3 64.4 0.00 0.00 0.00 96 845.3
20200531031740 0 261 40.2 48.3 0.00 0.00 0.00 96 845.3
20200531031640 0 255 27.4 33.8 0.00 0.00 0.00 97 845.4
20200531031540 0 274 43.5 54.7 0.00 0.00 0.00 97 845.1
20200531031440 0 282 24.1 41.8 0.00 0.00 0.00 97 845.4
20200531031340 0 245 35.4 40.2 0.00 0.00 0.00 97 845.5
20200531031240 0 244 45.1 51.5 0.00 0.00 0.00 97 845.4
20200531031140 0 251 40.2 48.3 0.00 0.00 0.00 97 845.3
20200531031040 0 251 33.8 45.1 0.00 0.00 0.00 97 845.5
20200531030940 0 279 37.0 45.1 0.00 0.00 0.00 97 845.0
20200531030840 0 262 33.8 45.1 0.00 0.00 0.00 97 845.3
20200531030740 0 242 24.1 29.0 0.00 0.00 0.00 97 845.7
20200531030640 0 250 17.7 25.7 0.00 0.00 0.00 97 845.9
20200531030540 0 256 30.6 45.1 0.00 0.00 0.00 97 845.7
20200531030440 0 250 38.6 40.2 0.00 0.00 0.00 97 845.5
20200531030340 0 257 30.6 35.4 0.00 0.00 0.00 97 845.8
20200531030240 0 264 30.6 43.5 0.00 0.00 0.00 97 845.7
20200531030140 0 258 27.4 30.6 0.00 0.00 0.00 97 845.7
20200531030040 0 259 46.7 53.1 0.00 0.00 0.00 97 845.3
20200531025940 0 266 43.5 45.1 0.00 0.00 0.00 97 845.5
20200531025840 0 248 29.0 35.4 0.00 0.00 0.00 97 845.7
20200531025740 0 243 24.1 29.0 0.00 0.00 0.00 97 845.8
20200531025640 0 283 29.0 37.0 0.00 0.00 0.00 97 845.8
20200531025540 0 262 30.6 43.5 0.00 0.00 0.00 97 845.7
20200531025440 0 261 33.8 41.8 0.00 0.00 0.00 97 845.4
20200531025340 0 258 40.2 43.5 0.00 0.00 0.00 96 845.4
20200531025240 0 263 37.0 46.7 0.00 0.00 0.00 96 845.5
20200531025140 0 262 45.1 53.1 0.00 0.00 0.00 96 845.3
20200531025040 0 318 9.7 14.5 0.00 0.00 0.00 96 845.7
20200531024940 0 242 38.6 45.1 0.00 0.00 0.00 96 845.5
20200531024840 0 266 51.5 66.0 0.00 0.00 0.00 97 844.9
20200531024740 0 255 48.3 56.3 0.00 0.00 0.00 97 845.3
20200531024640 0 253 38.6 43.5 0.00 0.00 0.00 96 845.4
20200531024540 0 253 37.0 40.2 0.00 0.00 0.00 97 845.7
20200531024440 0 253 32.2 43.5 0.00 0.00 0.00 97 845.7
20200531024340 0 259 46.7 49.9 0.00 0.00 0.00 96 845.5
20200531024240 0 296 24.1 37.0 0.00 0.00 0.00 97 845.7
20200531024140 0 259 43.5 46.7 0.00 0.00 0.00 97 845.3
20200531024040 0 257 53.1 64.4 0.00 0.00 0.00 97 844.9
20200531023940 0 266 41.8 53.1 0.00 0.00 0.00 96 845.3
20200531023840 0 282 17.7 29.0 0.00 0.00 0.00 96 845.8
20200531023740 0 268 30.6 38.6 0.00 0.00 0.00 96 845.5
20200531023640 0 261 43.5 49.9 0.00 0.00 0.00 96 845.7
20200531023540 0 270 37.0 51.5 0.00 0.00 0.00 96 845.4
20200531023440 0 270 43.5 51.5 0.00 0.00 0.00 96 845.3
20200531023340 0 249 29.0 32.2 0.00 0.00 0.00 97 845.8
20200531023240 0 268 35.4 43.5 0.00 0.00 0.00 97 845.7
20200531023140 0 302 19.3 33.8 0.00 0.00 0.00 97 845.7
20200531023040 0 262 43.5 48.3 0.00 0.00 0.00 97 845.5
20200531022940 0 269 33.8 46.7 0.00 0.00 0.00 98 845.5
20200531022840 0 260 48.3 53.1 0.00 0.00 0.00 98 845.3
20200531022740 0 261 33.8 40.2 0.00 0.00 0.00 98 845.7
20200531022640 0 245 41.8 48.3 0.00 0.00 0.00 98 845.7
20200531022540 0 260 38.6 41.8 0.00 0.00 0.00 98 845.7
20200531022440 0 244 29.0 38.6 0.00 0.00 0.00 98 845.8
20200531022340 0 250 46.7 48.3 0.00 0.00 0.00 98 845.7
20200531022240 0 264 22.5 35.4 0.00 0.00 0.00 98 845.7
20200531022140 0 282 29.0 35.4 0.00 0.00 0.00 99 845.7
20200531022040 0 262 43.5 46.7 0.00 0.00 0.00 99 845.8
20200531021940 0 264 24.1 35.4 0.00 0.00 0.00 99 845.9
20200531021840 0 272 46.7 64.4 0.00 0.00 0.00 99 845.1
20200531021740 0 245 32.2 43.5 0.00 0.00 0.00 99 845.7
20200531021640 0 255 43.5 46.7 0.00 0.00 0.00 10 845.7
20200531021540 0 277 37.0 49.9 0.00 0.00 0.00 10 845.5
20200531021440 0 266 33.8 41.8 0.00 0.00 0.00 10 845.8
20200531021340 0 264 37.0 41.8 0.00 0.00 0.00 10 845.8
20200531021240 0 279 27.4 41.8 0.00 0.00 0.00 10 845.7
20200531021140 0 276 30.6 35.4 0.00 0.00 0.00 10 845.5
20200531021040 0 265 43.5 48.3 0.00 0.00 0.00 10 845.4
20200531020940 0 257 40.2 45.1 0.00 0.00 0.00 10 845.7
20200531020840 0 289 20.9 32.2 0.00 0.00 0.00 10 845.8
20200531020740 0 286 29.0 41.8 0.00 0.00 0.00 10 845.7
20200531020640 0 256 30.6 37.0 0.00 0.00 0.00 10 845.9
20200531020540 0 247 38.6 41.8 0.00 0.00 0.00 10 845.8
20200531020440 0 241 32.2 38.6 0.00 0.00 0.00 10 845.9
20200531020340 0 264 33.8 43.5 0.00 0.00 0.00 10 845.8
20200531020240 0 262 41.8 43.5 0.00 0.00 0.00 10 845.8
20200531020140 0 263 37.0 38.6 0.00 0.00 0.00 10 845.8
20200531020040 0 249 30.6 33.8 0.00 0.00 0.00 10 846.1
20200531015940 0 247 30.6 37.0 0.00 0.00 0.00 10 845.9
20200531015840 0 277 27.4 30.6 0.00 0.00 0.00 10 845.9
20200531015740 0 268 40.2 46.7 0.00 0.00 0.00 10 845.7
20200531015640 0 279 30.6 45.1 0.00 0.00 0.00 10 845.9
20200531015540 0 268 24.1 30.6 0.00 0.00 0.00 10 845.9
20200531015440 0 244 32.2 40.2 0.00 0.00 0.00 10 846.1
20200531015340 0 269 35.4 43.5 0.00 0.00 0.00 10 846.1
20200531015241 0 271 30.6 43.5 0.00 0.00 0.00 10 845.7
20200531015140 0 290 45.1 53.1 0.00 0.00 0.00 10 845.7
20200531015040 0 268 46.7 53.1 0.00 0.00 0.00 10 845.5
20200531014940 0 269 38.6 43.5 0.00 0.00 0.00 10 845.7
20200531014840 0 254 35.4 43.5 0.00 0.00 0.00 10 846.1
20200531014740 0 285 24.1 37.0 0.00 0.00 0.00 10 845.8
20200531014640 0 254 30.6 37.0 0.00 0.00 0.00 10 846.1
20200531014540 0 238 30.6 33.8 0.00 0.00 0.00 10 846.1
20200531014440 0 257 29.0 33.8 0.00 0.00 0.00 10 845.9
20200531014340 0 277 30.6 33.8 0.00 0.00 0.00 10 845.8
20200531014240 0 242 40.2 45.1 0.00 0.00 0.00 10 845.9
20200531014140 0 255 49.9 53.1 0.00 0.00 0.00 10 845.7
20200531014040 0 250 38.6 41.8 0.00 0.00 0.00 10 845.9
20200531013940 0 259 30.6 40.2 0.00 0.00 0.00 10 846.1
20200531013840 0 239 33.8 38.6 0.00 0.00 0.00 10 846.2
20200531013740 0 285 30.6 49.9 0.00 0.00 0.00 10 845.7
20200531013640 0 264 32.2 35.4 0.00 0.00 0.00 10 845.9
20200531013540 0 271 19.3 29.0 0.00 0.00 0.00 10 846.1
20200531013440 0 296 25.7 35.4 0.00 0.00 0.00 10 846.2
20200531013340 0 283 30.6 40.2 0.00 0.00 0.00 10 845.7
20200531013240 0 255 38.6 43.5 0.00 0.00 0.00 10 845.9
20200531013140 0 284 27.4 38.6 0.00 0.00 0.00 10 846.1
20200531013040 0 263 32.2 37.0 0.00 0.00 0.00 10 846.1
20200531012940 0 251 29.0 30.6 0.00 0.00 0.00 10 846.1
20200531012840 0 252 29.0 37.0 0.00 0.00 0.00 10 846.1
20200531012740 0 260 48.3 56.3 0.00 0.00 0.00 10 845.7
20200531012640 0 284 40.2 49.9 0.00 0.00 0.00 10 846.1
20200531012540 0 271 27.4 35.4 0.00 0.00 0.00 10 845.9
20200531012440 0 288 14.5 22.5 0.00 0.00 0.00 10 846.3
20200531012340 0 277 33.8 40.2 0.00 0.00 0.00 10 846.1
20200531012240 0 274 40.2 45.1 0.00 0.00 0.00 10 845.8
20200531012140 0 281 32.2 45.1 0.00 0.00 0.00 10 846.1
20200531012040 0 268 32.2 37.0 0.00 0.00 0.00 10 846.3
20200531011940 0 283 35.4 41.8 0.00 0.00 0.00 10 846.2
20200531011840 0 279 37.0 45.1 0.00 0.00 0.00 10 845.8
20200531011740 0 246 27.4 35.4 0.00 0.00 0.00 10 846.3
20200531011640 0 256 24.1 29.0 0.00 0.00 0.00 10 846.5
20200531011540 0 267 37.0 40.2 0.00 0.00 0.00 10 846.1
20200531011440 0 282 29.0 38.6 0.00 0.00 0.00 10 846.1
20200531011340 0 282 32.2 38.6 0.00 0.00 0.00 10 846.3
20200531011240 0 273 38.6 46.7 0.00 0.00 0.00 10 846.1
20200531011140 0 278 27.4 35.4 0.00 0.00 0.00 10 845.9
20200531011040 0 249 43.5 49.9 0.00 0.00 0.00 10 846.1
20200531010940 0 269 37.0 45.1 0.00 0.00 0.00 10 846.1
20200531010840 0 259 29.0 35.4 0.00 0.00 0.00 10 846.2
20200531010740 0 274 35.4 46.7 0.00 0.00 0.00 10 846.1
20200531010640 0 256 38.6 41.8 0.00 0.00 0.00 10 846.2
20200531010540 0 259 49.9 56.3 0.00 0.00 0.00 10 845.7
20200531010440 0 275 30.6 43.5 0.00 0.00 0.00 10 846.1
20200531010340 0 238 40.2 43.5 0.00 0.00 0.00 10 846.2
20200531010240 0 260 40.2 48.3 0.00 0.00 0.00 10 846.1
20200531010140 0 241 40.2 49.9 0.00 0.00 0.00 10 846.2
20200531010039 0 262 29.0 40.2 0.00 0.00 0.00 10 846.3
20200531005940 0 266 45.1 49.9 0.00 0.00 0.00 99 845.9
20200531005840 0 279 30.6 40.2 0.00 0.00 0.00 99 845.8
20200531005740 0 256 51.5 57.9 0.00 0.00 0.00 99 845.9
20200531005640 0 272 32.2 41.8 0.00 0.00 0.00 99 846.1
20200531005540 0 247 35.4 43.5 0.00 0.00 0.00 99 846.1
20200531005440 0 242 27.4 40.2 0.00 0.00 0.00 99 846.5
20200531005340 0 263 57.9 61.2 0.00 0.00 0.00 99 845.7
20200531005240 0 253 48.3 51.5 0.00 0.00 0.00 99 846.1
20200531005140 0 265 41.8 49.9 0.00 0.00 0.00 99 846.1
20200531005040 0 254 43.5 46.7 0.00 0.00 0.00 99 846.1
20200531004940 0 214 22.5 27.4 0.00 0.00 0.00 99 846.6
20200531004840 0 258 37.0 48.3 0.00 0.00 0.00 99 846.1
20200531004740 0 224 29.0 35.4 0.00 0.00 0.00 99 846.5
20200531004640 0 264 43.5 49.9 0.00 0.00 0.00 99 846.2
20200531004540 0 276 17.7 25.7 0.00 0.00 0.00 99 846.6
20200531004440 0 269 22.5 29.0 0.00 0.00 0.00 99 846.6
20200531004340 0 242 29.0 37.0 0.00 0.00 0.00 99 846.5
20200531004240 0 247 33.8 37.0 0.00 0.00 0.00 99 846.5
20200531004140 0 268 38.6 46.7 0.00 0.00 0.00 99 846.2
20200531004040 0 265 32.2 40.2 0.00 0.00 0.00 99 846.3
20200531003940 0 237 29.0 30.6 0.00 0.00 0.00 99 846.7
20200531003840 0 262 48.3 56.3 0.00 0.00 0.00 99 846.1
20200531003740 0 251 30.6 33.8 0.00 0.00 0.00 99 846.5
20200531003639 0 240 24.1 32.2 0.00 0.00 0.00 99 846.5
20200531003540 0 231 29.0 33.8 0.00 0.00 0.00 99 846.5
20200531003439 0 246 27.4 33.8 0.00 0.00 0.00 99 846.6
20200531003340 0 247 38.6 41.8 0.00 0.00 0.00 99 846.5
20200531003239 0 259 41.8 48.3 0.00 0.00 0.00 99 846.3
20200531003140 0 293 27.4 43.5 0.00 0.00 0.00 99 846.5
20200531003039 0 253 32.2 35.4 0.00 0.00 0.00 99 846.5
20200531002940 0 249 33.8 35.4 0.00 0.00 0.00 99 846.5
20200531002840 0 257 30.6 35.4 0.00 0.00 0.00 99 846.6
20200531002739 0 251 41.8 48.3 0.00 0.00 0.00 99 846.3
20200531002639 0 253 32.2 35.4 0.00 0.00 0.00 99 846.6
20200531002540 0 263 41.8 45.1 0.00 0.00 0.00 99 846.3
20200531002440 0 262 27.4 38.6 0.00 0.00 0.00 99 846.5
20200531002340 0 244 33.8 37.0 0.00 0.00 0.00 99 846.5
20200531002240 0 223 27.4 38.6 0.00 0.00 0.00 99 846.5
20200531002140 0 277 32.2 38.6 0.00 0.00 0.00 99 846.5
20200531002040 0 267 33.8 45.1 0.00 0.00 0.00 99 846.5
20200531001940 0 285 32.2 40.2 0.00 0.00 0.00 99 846.3
20200531001840 0 246 37.0 40.2 0.00 0.00 0.00 99 846.5
20200531001739 0 252 35.4 41.8 0.00 0.00 0.00 99 846.5
20200531001640 0 293 32.2 43.5 0.00 0.00 0.00 99 846.6
20200531001539 0 261 32.2 40.2 0.00 0.00 0.00 99 846.5
20200531001440 0 263 22.5 29.0 0.00 0.00 0.00 99 846.5
20200531001340 0 261 46.7 51.5 0.00 0.00 0.00 99 846.5
20200531001240 0 270 25.7 35.4 0.00 0.00 0.00 99 846.5
20200531001140 0 254 35.4 38.6 0.00 0.00 0.00 99 846.6
20200531001039 0 251 30.6 40.2 0.00 0.00 0.00 99 846.5
20200531000940 0 247 45.1 46.7 0.00 0.00 0.00 99 846.5
20200531000839 0 267 45.1 53.1 0.00 0.00 0.00 99 846.1
20200531000740 0 268 33.8 43.5 0.00 0.00 0.00 99 846.5
20200531000641 0 262 33.8 45.1 0.00 0.00 0.00 99 846.3
20200531000540 0 281 33.8 49.9 0.00 0.00 0.00 99 846.5
20200531000440 0 256 27.4 32.2 0.00 0.00 0.00 99 846.6
20200531000340 0 264 29.0 40.2 0.00 0.00 0.00 99 846.6
20200531000240 0 284 32.2 53.1 0.00 0.00 0.00 99 846.6
20200531000140 0 283 24.1 30.6 0.00 0.00 0.00 99 846.5
20200531000040 0 279 43.5 46.7 0.00 0.00 0.00 99 846.3
20200530235940 0 261 40.2 41.8 0.00 0.00 0.00 99 846.5
20200530235840 0 272 19.3 30.6 0.00 0.00 0.00 99 846.5
20200530235739 0 282 38.6 46.7 0.00 0.00 0.00 99 846.2
20200530235639 0 253 32.2 38.6 0.00 0.00 0.00 99 846.6
20200530235540 0 264 48.3 59.5 0.00 0.00 0.00 99 846.1
20200530235440 0 271 27.4 30.6 0.00 0.00 0.00 99 846.9
20200530235339 0 277 30.6 41.8 0.00 0.00 0.00 99 846.5
20200530235240 0 250 32.2 40.2 0.00 0.00 0.00 99 846.7
20200530235140 0 271 20.9 25.7 0.00 0.00 0.00 99 846.9
20200530235039 0 268 22.5 27.4 0.00 0.00 0.00 99 846.9
20200530234939 0 247 29.0 30.6 0.00 0.00 0.00 99 846.9
20200530234840 0 271 25.7 32.2 0.00 0.00 0.00 99 846.9
20200530234740 0 263 30.6 38.6 0.00 0.00 0.00 99 846.7
20200530234639 0 270 40.2 49.9 0.00 0.00 0.00 99 846.3
20200530234539 0 263 40.2 45.1 0.00 0.00 0.00 99 846.5
20200530234439 0 288 19.3 20.9 0.00 0.00 0.00 99 846.6
20200530234340 0 288 29.0 40.2 0.00 0.00 0.00 99 846.9
20200530234239 0 279 29.0 45.1 0.00 0.00 0.00 99 846.9
20200530234139 0 283 38.6 48.3 0.00 0.00 0.00 99 846.7
20200530234039 0 292 35.4 49.9 0.00 0.00 0.00 99 846.7
20200530233939 0 262 27.4 38.6 0.00 0.00 0.00 99 846.9
20200530233839 0 279 40.2 49.9 0.00 0.00 0.00 99 846.7
20200530233739 0 264 29.0 37.0 0.00 0.00 0.00 99 846.7
20200530233639 0 262 30.6 37.0 0.00 0.00 0.00 99 846.9
20200530233539 0 286 37.0 43.5 0.00 0.00 0.00 99 846.9
20200530233439 0 260 32.2 45.1 0.00 0.00 0.00 99 846.9
20200530233339 0 274 27.4 35.4 0.00 0.00 0.00 99 846.9
20200530233239 0 268 32.2 43.5 0.00 0.00 0.00 99 846.6
20200530233139 0 260 45.1 49.9 0.00 0.00 0.00 99 846.7
20200530233039 0 283 19.3 27.4 0.00 0.00 0.00 99 846.9
20200530232939 0 266 37.0 41.8 0.00 0.00 0.00 99 846.9
20200530232840 0 267 37.0 41.8 0.00 0.00 0.00 99 846.7
20200530232739 0 286 27.4 38.6 0.00 0.00 0.00 99 847.0
20200530232639 0 267 33.8 38.6 0.00 0.00 0.00 99 846.9
20200530232539 0 266 40.2 46.7 0.00 0.00 0.00 99 846.6
20200530232439 0 276 25.7 37.0 0.00 0.00 0.00 99 846.9
20200530232343 0 282 33.8 40.2 0.00 0.00 0.00 99 846.9
20200530232239 0 271 30.6 37.0 0.00 0.00 0.00 99 847.0
20200530232139 0 270 43.5 53.1 0.00 0.00 0.00 99 846.6
20200530232039 0 268 33.8 35.4 0.00 0.00 0.00 99 846.9
20200530231939 0 274 27.4 32.2 0.00 0.00 0.00 99 847.0
20200530231839 0 281 17.7 30.6 0.00 0.00 0.00 99 847.1
20200530231739 0 264 38.6 43.5 0.00 0.00 0.00 99 846.9
20200530231639 0 265 32.2 35.4 0.00 0.00 0.00 99 847.0
20200530231539 0 255 27.4 30.6 0.00 0.00 0.00 99 847.0
20200530231439 0 267 30.6 37.0 0.00 0.00 0.00 99 847.0
20200530231339 0 260 33.8 37.0 0.00 0.00 0.00 99 847.1
20200530231240 0 268 48.3 51.5 0.00 0.00 0.00 99 846.5
20200530231140 0 269 41.8 45.1 0.00 0.00 0.00 99 846.9
20200530231040 0 270 33.8 41.8 0.00 0.00 0.00 99 846.6
20200530230940 0 259 40.2 45.1 0.00 0.00 0.00 99 847.0
20200530230840 0 288 25.7 33.8 0.00 0.00 0.00 99 847.0
20200530230739 0 265 35.4 40.2 0.00 0.00 0.00 99 847.0
20200530230640 0 287 45.1 56.3 0.00 0.00 0.00 99 847.0
20200530230539 0 284 30.6 40.2 0.00 0.00 0.00 99 847.0
20200530230439 0 269 30.6 46.7 0.00 0.00 0.00 99 847.1
20200530230340 0 269 43.5 49.9 0.00 0.00 0.00 99 846.6
20200530230239 0 292 43.5 51.5 0.00 0.00 0.00 99 846.9
20200530230139 0 279 25.7 35.4 0.00 0.00 0.00 99 847.1
20200530230039 0 283 35.4 46.7 0.00 0.00 0.00 99 846.9
20200530225940 0 271 24.1 32.2 0.00 0.00 0.00 99 847.3
20200530225839 0 263 27.4 41.8 0.00 0.00 0.00 99 847.3
20200530225739 0 278 25.7 33.8 0.00 0.00 0.00 99 847.3
20200530225640 0 269 33.8 41.8 0.00 0.00 0.00 99 847.0
20200530225539 0 280 30.6 45.1 0.00 0.00 0.00 99 846.9
20200530225439 0 295 29.0 40.2 0.00 0.00 0.00 99 847.1
20200530225339 0 261 43.5 53.1 0.00 0.00 0.00 99 846.9
20200530225239 0 273 37.0 46.7 0.00 0.00 0.00 99 847.0
20200530225139 0 268 38.6 45.1 0.00 0.00 0.00 99 847.1
20200530225039 0 267 40.2 45.1 0.00 0.00 0.00 99 846.9
20200530224939 0 275 32.2 40.2 0.00 0.00 0.00 99 846.9
20200530224839 0 277 25.7 35.4 0.00 0.00 0.00 99 847.3
20200530224739 0 267 46.7 53.1 0.00 0.00 0.00 99 846.9
20200530224639 0 279 40.2 43.5 0.00 0.00 0.00 99 847.0
20200530224539 0 269 33.8 41.8 0.00 0.00 0.00 99 847.0
20200530224439 0 269 33.8 43.5 0.00 0.00 0.00 99 847.3
20200530224339 0 270 35.4 43.5 0.00 0.00 0.00 99 846.9
20200530224239 0 278 30.6 37.0 0.00 0.00 0.00 99 847.3
20200530224139 0 287 29.0 35.4 0.00 0.00 0.00 99 847.3
20200530224039 0 288 29.0 41.8 0.00 0.00 0.00 99 847.3
20200530223940 0 275 37.0 46.7 0.00 0.00 0.00 99 847.1
20200530223839 0 278 37.0 45.1 0.00 0.00 0.00 99 847.1
20200530223739 0 271 45.1 48.3 0.00 0.00 0.00 99 847.1
20200530223639 0 261 41.8 46.7 0.00 0.00 0.00 99 847.3
20200530223539 0 263 33.8 49.9 0.00 0.00 0.00 99 847.0
20200530223439 0 282 27.4 35.4 0.00 0.00 0.00 99 847.3
20200530223339 0 263 33.8 41.8 0.00 0.00 0.00 99 847.3
20200530223239 0 274 38.6 49.9 0.00 0.00 0.00 99 847.1
20200530223139 0 271 33.8 43.5 0.00 0.00 0.00 99 847.3
20200530223039 0 277 17.7 29.0 0.00 0.00 0.00 99 847.5
20200530222939 0 269 38.6 46.7 0.00 0.00 0.00 99 847.3
20200530222839 0 261 46.7 51.5 0.00 0.00 0.00 99 847.3
20200530222739 0 271 20.9 29.0 0.00 0.00 0.00 99 847.5
20200530222639 0 266 43.5 49.9 0.00 0.00 0.00 99 847.0
20200530222539 0 263 43.5 46.7 0.00 0.00 0.00 99 847.3
20200530222439 0 266 29.0 35.4 0.00 0.00 0.00 99 847.5
20200530222339 0 242 38.6 41.8 0.00 0.00 0.00 99 847.4
20200530222239 0 244 43.5 46.7 0.00 0.00 0.00 99 847.4
20200530222139 0 244 43.5 46.7 0.00 0.00 0.00 99 847.3
20200530222039 0 263 41.8 46.7 0.00 0.00 0.00 99 847.3
20200530221939 0 292 25.7 40.2 0.00 0.00 0.00 99 847.3
20200530221839 0 255 45.1 53.1 0.00 0.00 0.00 99 847.3
20200530221739 0 261 45.1 48.3 0.00 0.00 0.00 99 847.3
20200530221639 0 255 41.8 48.3 0.00 0.00 0.00 99 847.3
20200530221539 0 281 17.7 30.6 0.00 0.00 0.00 99 847.4
20200530221439 0 269 37.0 43.5 0.00 0.00 0.00 99 847.3
20200530221339 0 265 41.8 45.1 0.00 0.00 0.00 99 847.3
20200530221239 1 276 27.4 35.4 0.00 0.00 0.00 99 847.4
20200530221139 1 269 45.1 54.7 0.00 0.00 0.00 99 846.9
20200530221039 1 250 32.2 35.4 0.00 0.00 0.00 99 847.5
20200530220939 1 253 40.2 45.1 0.00 0.00 0.00 99 847.3
20200530220839 1 254 43.5 49.9 0.00 0.00 0.00 99 847.3
20200530220739 1 232 37.0 40.2 0.00 0.00 0.00 99 847.4
20200530220639 0 256 38.6 48.3 0.00 0.00 0.00 99 847.5
20200530220539 0 267 30.6 45.1 0.00 0.00 0.00 99 847.3
20200530220439 0 274 37.0 40.2 0.00 0.00 0.00 99 847.4
20200530220339 0 281 22.5 33.8 0.00 0.00 0.00 99 847.3
20200530220239 0 275 32.2 43.5 0.00 0.00 0.00 99 847.4
20200530220139 0 258 33.8 40.2 0.00 0.00 0.00 99 847.4
20200530220039 0 289 24.1 40.2 0.00 0.00 0.00 99 847.4
20200530215939 0 270 24.1 30.6 0.00 0.00 0.00 99 847.3
20200530215839 0 270 46.7 53.1 0.00 0.00 0.00 99 847.3
20200530215739 0 262 30.6 41.8 0.00 0.00 0.00 99 847.5
20200530215639 0 250 35.4 40.2 0.00 0.00 0.00 99 847.5
20200530215539 0 266 46.7 49.9 0.00 0.00 0.00 99 847.3
20200530215439 0 254 33.8 40.2 0.00 0.00 0.00 99 847.7
20200530215339 0 276 37.0 49.9 0.00 0.00 0.00 99 847.3
20200530215239 0 274 30.6 45.1 0.00 0.00 0.00 99 847.3
20200530215139 0 263 33.8 38.6 0.00 0.00 0.00 99 847.7
20200530215039 0 289 33.8 43.5 0.00 0.00 0.00 99 847.7
20200530214939 0 265 32.2 40.2 0.00 0.00 0.00 99 847.4
20200530214839 0 275 24.1 33.8 0.00 0.00 0.00 99 847.7
20200530214739 0 265 27.4 33.8 0.00 0.00 0.00 99 847.7
20200530214639 0 282 20.9 30.6 0.00 0.00 0.00 99 847.7
20200530214539 0 282 30.6 40.2 0.00 0.00 0.00 99 847.7
20200530214439 0 271 33.8 41.8 0.00 0.00 0.00 99 847.7
20200530214339 0 287 22.5 29.0 0.00 0.00 0.00 98 847.7
20200530214239 0 262 40.2 45.1 0.00 0.00 0.00 99 847.4
20200530214139 0 267 24.1 33.8 0.00 0.00 0.00 99 847.7
20200530214039 0 287 29.0 37.0 0.00 0.00 0.00 99 847.5
20200530213939 0 286 38.6 43.5 0.00 0.00 0.00 99 847.7
20200530213839 0 281 24.1 37.0 0.00 0.00 0.00 99 847.7
20200530213739 0 270 37.0 46.7 0.00 0.00 0.00 99 847.4
20200530213639 0 260 33.8 37.0 0.00 0.00 0.00 99 847.7
20200530213539 0 283 46.7 49.9 0.00 0.00 0.00 99 847.4
20200530213439 0 276 30.6 37.0 0.00 0.00 0.00 99 847.5
20200530213339 0 283 27.4 37.0 0.00 0.00 0.00 99 847.5
20200530213239 0 285 29.0 38.6 0.00 0.00 0.00 99 847.5
20200530213139 0 274 40.2 51.5 0.00 0.00 0.00 99 847.5
20200530213039 0 280 38.6 43.5 0.00 0.00 0.00 99 847.5
20200530212939 0 267 40.2 45.1 0.00 0.00 0.00 99 847.3
20200530212839 0 266 38.6 48.3 0.00 0.00 0.00 99 847.4
20200530212739 0 272 43.5 54.7 0.00 0.00 0.00 99 847.5
20200530212639 0 277 33.8 43.5 0.00 0.00 0.00 99 847.4
20200530212539 0 267 32.2 43.5 0.00 0.00 0.00 99 847.7
20200530212439 0 275 33.8 46.7 0.00 0.00 0.00 99 847.4
20200530212339 0 263 29.0 35.4 0.00 0.00 0.00 99 847.7
20200530212239 0 277 45.1 51.5 0.00 0.00 0.00 99 847.0
20200530212139 0 261 32.2 38.6 0.00 0.00 0.00 99 847.7
20200530212039 0 285 33.8 37.0 0.00 0.00 0.00 99 847.4
20200530211939 0 290 27.4 37.0 0.00 0.00 0.00 99 847.7
20200530211839 0 271 40.2 51.5 0.00 0.00 0.00 99 847.3
20200530211739 0 282 41.8 51.5 0.00 0.00 0.00 99 847.5
20200530211639 0 281 32.2 41.8 0.00 0.00 0.00 99 847.7
20200530211539 0 266 38.6 46.7 0.00 0.00 0.00 99 847.5
20200530211439 0 266 38.6 46.7 0.00 0.00 0.00 99 847.5
20200530211339 0 289 35.4 46.7 0.00 0.00 0.00 99 847.7
20200530211239 0 292 32.2 45.1 0.00 0.00 0.00 99 847.7
20200530211140 0 276 43.5 53.1 0.00 0.00 0.00 99 847.4
20200530211040 0 283 35.4 48.3 0.00 0.00 0.00 99 847.4
20200530210940 0 268 37.0 43.5 0.00 0.00 0.00 99 847.5
20200530210840 0 286 32.2 40.2 0.00 0.00 0.00 99 847.9
20200530210739 0 277 30.6 38.6 0.00 0.00 0.00 99 847.7
20200530210639 0 288 30.6 38.6 0.00 0.00 0.00 99 847.5
20200530210539 0 284 27.4 41.8 0.00 0.00 0.00 99 847.7
20200530210439 0 285 27.4 46.7 0.00 0.00 0.00 99 847.7
20200530210339 0 263 41.8 45.1 0.00 0.00 0.00 99 847.5
20200530210239 0 259 43.5 49.9 0.00 0.00 0.00 99 847.5
20200530210139 0 266 33.8 40.2 0.00 0.00 0.00 99 847.5
20200530210039 0 255 38.6 46.7 0.00 0.00 0.00 99 847.7
20200530205939 0 263 48.3 53.1 0.00 0.00 0.00 99 847.4
20200530205839 0 269 46.7 51.5 0.00 0.00 0.00 99 847.3
20200530205739 0 275 38.6 46.7 0.00 0.00 0.00 99 847.3
20200530205639 0 279 33.8 41.8 0.00 0.00 0.00 99 847.5
20200530205539 0 255 51.5 57.9 0.00 0.00 0.00 99 847.3
20200530205439 0 281 33.8 43.5 0.00 0.00 0.00 99 847.4
20200530205339 0 279 41.8 53.1 0.00 0.00 0.00 99 847.4
20200530205239 0 274 25.7 37.0 0.00 0.00 0.00 99 847.7
20200530205139 0 271 37.0 43.5 0.00 0.00 0.00 99 847.4
20200530205039 0 261 38.6 46.7 0.00 0.00 0.00 99 847.7
20200530204939 0 272 27.4 41.8 0.00 0.00 0.00 99 847.7
20200530204839 0 256 37.0 41.8 0.00 0.00 0.00 99 847.7
20200530204739 0 256 40.2 43.5 0.00 0.00 0.00 99 847.7
20200530204639 0 263 41.8 45.1 0.00 0.00 0.00 98 847.7
20200530204539 0 269 43.5 49.9 0.00 0.00 0.00 98 847.7
20200530204439 0 263 46.7 48.3 0.00 0.00 0.00 98 847.5
20200530204339 0 260 41.8 48.3 0.00 0.00 0.00 98 847.7
20200530204239 0 272 38.6 43.5 0.00 0.00 0.00 98 847.7
20200530204141 0 257 46.7 49.9 0.00 0.00 0.00 98 847.7
20200530204039 0 265 40.2 43.5 0.00 0.00 0.00 98 847.7
20200530203939 0 286 22.5 32.2 0.00 0.00 0.00 98 847.7
20200530203839 0 252 37.0 40.2 0.00 0.00 0.00 98 847.9
20200530203739 0 263 29.0 37.0 0.00 0.00 0.00 98 847.9
20200530203639 0 259 24.1 29.0 0.00 0.00 0.00 98 848.1
20200530203539 0 286 25.7 40.2 0.00 0.00 0.00 98 847.9
20200530203439 0 268 30.6 40.2 0.00 0.00 0.00 98 847.7
20200530203339 0 264 37.0 41.8 0.00 0.00 0.00 98 847.7
20200530203239 0 278 27.4 37.0 0.00 0.00 0.00 98 847.8
20200530203139 0 267 24.1 37.0 0.00 0.00 0.00 98 848.1
20200530203039 0 256 38.6 46.7 0.00 0.00 0.00 98 847.8
20200530202839 0 228 25.7 29.0 0.00 0.00 0.00 98 848.1
20200530202739 0 261 46.7 49.9 0.00 0.00 0.00 98 847.7
20200530202639 0 257 32.2 37.0 0.00 0.00 0.00 98 848.1
20200530202539 1 236 29.0 30.6 0.00 0.00 0.00 97 848.1
20200530202439 1 272 43.5 51.5 0.00 0.00 0.00 97 847.7
20200530202339 1 258 41.8 46.7 0.00 0.00 0.00 97 847.9
20200530202239 1 252 38.6 43.5 0.00 0.00 0.00 97 847.9
20200530202139 1 261 40.2 43.5 0.00 0.00 0.00 97 847.8
20200530202039 1 256 33.8 40.2 0.00 0.00 0.00 97 848.1
20200530201939 1 256 46.7 51.5 0.00 0.00 0.00 97 847.8
20200530201839 1 267 45.1 51.5 0.00 0.00 0.00 97 847.7
20200530201739 1 268 40.2 46.7 0.00 0.00 0.00 96 847.7
20200530201639 1 271 33.8 45.1 0.00 0.00 0.00 96 847.8
20200530201539 1 291 27.4 37.0 0.00 0.00 0.00 96 847.9
20200530201439 1 271 41.8 49.9 0.00 0.00 0.00 96 847.7
20200530201339 1 283 20.9 32.2 0.00 0.00 0.00 96 847.8
20200530201239 1 272 41.8 48.3 0.00 0.00 0.00 96 847.7
20200530201139 1 268 37.0 46.7 0.00 0.00 0.00 95 847.7
20200530201039 1 286 22.5 35.4 0.00 0.00 0.00 95 847.8
20200530200939 1 266 54.7 64.4 0.00 0.00 0.00 95 847.3
20200530200839 1 268 48.3 54.7 0.00 0.00 0.00 94 847.1
20200530200739 1 275 43.5 49.9 0.00 0.00 0.00 94 847.3
20200530200639 1 256 38.6 46.7 0.00 0.00 0.00 93 847.7
20200530200539 1 269 40.2 51.5 0.00 0.00 0.00 93 847.7
20200530200439 1 277 35.4 40.2 0.00 0.00 0.00 93 847.5
20200530200339 1 274 41.8 51.5 0.00 0.00 0.00 94 847.7
20200530200239 1 268 41.8 49.9 0.00 0.00 0.00 93 847.3
20200530200139 1 281 30.6 37.0 0.00 0.00 0.00 93 847.5
20200530200039 1 273 35.4 51.5 0.00 0.00 0.00 94 847.4
20200530195939 1 271 37.0 51.5 0.00 0.00 0.00 94 847.4
20200530195839 1 277 37.0 48.3 0.00 0.00 0.00 95 847.7
20200530195739 1 265 41.8 53.1 0.00 0.00 0.00 94 847.7
20200530195639 1 286 32.2 41.8 0.00 0.00 0.00 94 847.8
20200530195539 1 275 27.4 37.0 0.00 0.00 0.00 94 847.8
20200530195439 1 284 35.4 45.1 0.00 0.00 0.00 94 847.7
20200530195339 1 269 48.3 59.5 0.00 0.00 0.00 95 847.5
20200530195239 1 260 40.2 45.1 0.00 0.00 0.00 95 847.7
20200530195139 1 269 41.8 46.7 0.00 0.00 0.00 96 847.7
20200530195039 1 278 27.4 40.2 0.00 0.00 0.00 96 847.8
20200530194939 1 292 25.7 35.4 0.00 0.00 0.00 97 847.5
20200530194839 1 284 30.6 46.7 0.00 0.00 0.00 97 847.5
20200530194739 1 273 32.2 46.7 0.00 0.00 0.00 98 847.7
20200530194639 1 281 32.2 41.8 0.00 0.00 0.00 98 847.7
20200530194539 1 275 38.6 54.7 0.00 0.00 0.00 98 847.5
20200530194439 1 271 30.6 49.9 0.00 0.00 0.00 98 847.7
20200530194339 1 291 27.4 40.2 0.00 0.00 0.00 98 847.9
20200530194239 1 277 38.6 45.1 0.00 0.00 0.00 98 847.7
20200530194139 1 279 38.6 43.5 0.00 0.00 0.00 98 847.5
20200530194039 1 273 27.4 37.0 0.00 0.00 0.00 98 847.7
20200530193939 1 274 35.4 43.5 0.00 0.00 0.00 98 847.5
20200530193839 1 272 43.5 49.9 0.00 0.00 0.00 98 847.7
20200530193739 1 282 29.0 41.8 0.00 0.00 0.00 97 847.9
20200530193639 1 266 32.2 37.0 0.00 0.00 0.00 97 848.1
20200530193539 1 272 24.1 33.8 0.00 0.00 0.00 97 848.1
20200530193439 1 274 30.6 41.8 0.00 0.00 0.00 97 848.1
20200530193339 1 273 32.2 43.5 0.00 0.00 0.00 97 847.8
20200530193239 1 276 29.0 37.0 0.00 0.00 0.00 97 848.1
20200530193139 1 274 38.6 46.7 0.00 0.00 0.00 97 847.8
20200530193039 1 278 29.0 38.6 0.00 0.00 0.00 97 848.2
20200530192939 1 269 27.4 37.0 0.00 0.00 0.00 97 848.2
20200530192839 1 268 33.8 43.5 0.00 0.00 0.00 97 848.1
20200530192739 1 274 41.8 46.7 0.00 0.00 0.00 97 847.8
20200530192639 1 271 38.6 43.5 0.00 0.00 0.00 97 848.1
20200530192539 1 266 43.5 48.3 0.00 0.00 0.00 97 847.8
20200530192439 1 273 25.7 30.6 0.00 0.00 0.00 97 848.3
20200530192339 1 270 32.2 46.7 0.00 0.00 0.00 97 848.1
20200530192239 1 269 29.0 38.6 0.00 0.00 0.00 97 848.2
20200530192139 1 272 37.0 48.3 0.00 0.00 0.00 96 847.8
20200530192039 1 261 43.5 48.3 0.00 0.00 0.00 96 847.9
20200530191939 1 274 43.5 46.7 0.00 0.00 0.00 96 848.1
20200530191839 1 284 27.4 41.8 0.00 0.00 0.00 96 847.8
20200530191739 1 267 35.4 40.2 0.00 0.00 0.00 96 848.1
20200530191639 1 281 37.0 43.5 0.00 0.00 0.00 96 848.1
20200530191539 1 277 33.8 46.7 0.00 0.00 0.00 96 848.1
20200530191439 1 277 38.6 46.7 0.00 0.00 0.00 95 847.8
20200530191339 1 284 38.6 48.3 0.00 0.00 0.00 95 848.1
20200530191240 1 276 46.7 54.7 0.00 0.00 0.00 95 847.8
20200530191139 1 284 27.4 35.4 0.00 0.00 0.00 95 848.3
20200530191039 1 286 30.6 37.0 0.00 0.00 0.00 94 848.3
20200530190939 1 285 24.1 29.0 0.00 0.00 0.00 94 848.5
20200530190839 1 260 22.5 27.4 0.00 0.00 0.00 94 848.5
20200530190739 1 286 35.4 40.2 0.00 0.00 0.00 93 848.3
20200530190640 1 273 27.4 32.2 0.00 0.00 0.00 93 848.3
20200530190540 1 289 24.1 35.4 0.00 0.00 0.00 93 848.1
20200530190439 1 270 33.8 45.1 0.00 0.00 0.00 93 848.2
20200530190340 1 288 25.7 30.6 0.00 0.00 0.00 93 848.2
20200530190239 1 262 40.2 45.1 0.00 0.00 0.00 92 848.1
20200530190140 1 264 27.4 37.0 0.00 0.00 0.00 92 848.2
20200530190040 1 267 22.5 27.4 0.00 0.00 0.00 92 848.5
20200530185939 1 250 25.7 27.4 0.00 0.00 0.00 91 848.5
20200530185839 1 247 33.8 38.6 0.00 0.00 0.00 91 848.2
20200530185739 1 251 32.2 35.4 0.00 0.00 0.00 90 848.2
20200530185639 1 250 41.8 46.7 0.00 0.00 0.00 90 848.1
20200530185539 1 246 35.4 43.5 0.00 0.00 0.00 90 848.1
20200530185439 1 281 29.0 45.1 0.00 0.00 0.00 90 847.7
20200530185339 1 241 40.2 46.7 0.00 0.00 0.00 90 847.9
20200530185239 1 252 33.8 38.6 0.00 0.00 0.00 90 848.1
20200530185139 1 228 33.8 43.5 0.00 0.00 0.00 89 848.1
20200530185039 1 245 41.8 46.7 0.00 0.00 0.00 89 848.1
20200530184939 1 274 24.1 38.6 0.00 0.00 0.00 89 848.1
20200530184839 1 223 38.6 48.3 0.00 0.00 0.00 89 847.9
20200530184639 1 253 33.8 35.4 0.00 0.00 0.00 88 848.1
20200530184539 1 246 51.5 54.7 0.00 0.00 0.00 88 847.7
20200530184439 1 213 30.6 37.0 0.00 0.00 0.00 89 848.1
20200530184339 1 249 46.7 49.9 0.00 0.00 0.00 91 847.8
20200530184239 1 226 30.6 37.0 0.00 0.00 0.00 90 848.1
20200530184139 1 254 45.1 49.9 0.00 0.00 0.00 90 847.9
20200530184039 1 249 46.7 51.5 0.00 0.00 0.00 90 847.9
20200530183939 1 242 27.4 35.4 0.00 0.00 0.00 90 848.1
20200530183839 1 217 48.3 57.9 0.00 0.00 0.00 90 847.7
20200530183739 1 227 43.5 49.9 0.00 0.00 0.00 90 847.9
20200530183639 1 236 32.2 41.8 0.00 0.00 0.00 89 848.1
20200530183539 1 242 43.5 49.9 0.00 0.00 0.00 90 847.7
20200530183439 1 242 49.9 54.7 0.00 0.00 0.00 91 847.7
20200530183339 1 253 29.0 33.8 0.00 0.00 0.00 92 848.1
20200530183239 1 258 25.7 30.6 0.00 0.00 0.00 91 848.1
20200530183139 1 259 43.5 51.5 0.00 0.00 0.00 91 847.9
20200530183039 1 257 49.9 53.1 0.00 0.00 0.00 92 847.5
20200530182939 1 244 41.8 46.7 0.00 0.00 0.00 92 847.9
20200530182839 1 236 35.4 45.1 0.00 0.00 0.00 92 848.1
20200530182739 1 222 30.6 40.2 0.00 0.00 0.00 92 848.1
20200530182639 1 242 43.5 57.9 0.00 0.00 0.00 93 847.9
20200530182539 1 268 43.5 57.9 0.00 0.00 0.00 93 847.5
20200530182439 1 231 37.0 40.2 0.00 0.00 0.00 95 848.1
20200530182339 1 248 33.8 37.0 0.00 0.00 0.00 95 848.1
20200530182239 1 247 27.4 30.6 0.00 0.00 0.00 95 848.2
20200530182139 1 261 37.0 43.5 0.00 0.00 0.00 96 847.9
20200530182039 1 259 41.8 45.1 0.00 0.00 0.00 97 847.9
20200530181939 1 253 41.8 49.9 0.00 0.00 0.00 98 847.9
20200530181839 1 234 33.8 38.6 0.00 0.00 0.00 98 848.1
20200530181739 1 258 37.0 43.5 0.00 0.00 0.00 98 847.8
20200530181639 1 285 24.1 33.8 0.00 0.00 0.00 98 848.1
20200530181539 1 255 35.4 38.6 0.00 0.00 0.00 98 848.1
20200530181439 1 249 37.0 38.6 0.00 0.00 0.00 98 848.2
20200530181339 1 264 51.5 57.9 0.00 0.00 0.00 98 847.5
20200530181239 1 250 35.4 38.6 0.00 0.00 0.00 98 848.1
20200530181139 1 249 37.0 43.5 0.00 0.00 0.00 98 848.1
20200530181039 1 236 30.6 35.4 0.00 0.00 0.00 98 848.2
20200530180939 1 262 33.8 35.4 0.00 0.00 0.00 98 848.1
20200530180839 1 247 32.2 37.0 0.00 0.00 0.00 98 848.1
20200530180739 1 256 29.0 32.2 0.00 0.00 0.00 98 848.2
20200530180639 1 241 27.4 27.4 0.00 0.00 0.00 98 848.2
20200530180539 1 261 35.4 40.2 0.00 0.00 0.00 98 848.1
20200530180439 1 260 27.4 33.8 0.00 0.00 0.00 98 848.2
20200530180339 1 257 30.6 38.6 0.00 0.00 0.00 98 848.2
20200530180239 1 262 30.6 33.8 0.00 0.00 0.00 98 848.2
20200530180139 1 263 29.0 37.0 0.00 0.00 0.00 98 848.1
20200530180039 1 246 27.4 29.0 0.00 0.00 0.00 98 848.2
20200530175939 1 256 38.6 41.8 0.00 0.00 0.00 98 847.8
20200530175839 1 265 35.4 45.1 0.00 0.00 0.00 98 847.9
20200530175739 1 250 33.8 37.0 0.00 0.00 0.00 98 848.1
20200530175639 1 277 17.7 27.4 0.00 0.00 0.00 98 848.2
20200530175544 1 261 37.0 45.1 0.00 0.00 0.00 98 848.1
20200530175439 1 267 27.4 38.6 0.00 0.00 0.00 98 847.9
20200530175339 1 257 27.4 33.8 0.00 0.00 0.00 97 848.2
20200530175240 1 257 33.8 37.0 0.00 0.00 0.00 97 848.1
20200530175139 1 251 33.8 37.0 0.00 0.00 0.00 97 848.1
20200530175039 1 291 20.9 32.2 0.00 0.00 0.00 97 848.1
20200530174939 1 241 30.6 33.8 0.00 0.00 0.00 97 848.2
20200530174839 1 264 25.7 33.8 0.00 0.00 0.00 97 848.2
20200530174739 1 285 29.0 37.0 0.00 0.00 0.00 96 848.3
20200530174639 1 268 24.1 27.4 0.00 0.00 0.00 96 848.2
20200530174539 1 265 38.6 41.8 0.00 0.00 0.00 96 848.1
20200530174439 2 262 41.8 45.1 0.00 0.00 0.00 96 848.1
20200530174339 2 268 30.6 35.4 0.00 0.00 0.00 95 848.1
20200530174239 2 269 29.0 37.0 0.00 0.00 0.00 94 848.1
20200530174139 2 265 33.8 41.8 0.00 0.00 0.00 94 847.8
20200530174039 2 264 37.0 49.9 0.00 0.00 0.00 93 847.7
20200530173941 2 273 30.6 41.8 0.00 0.00 0.00 93 847.9
20200530173839 2 273 25.7 40.2 0.00 0.00 0.00 93 847.9
20200530173739 2 274 33.8 37.0 0.00 0.00 0.00 92 847.7
20200530173639 2 259 40.2 43.5 0.00 0.00 0.00 92 847.8
20200530173539 2 281 45.1 59.5 0.00 0.00 0.00 92 847.7
20200530173439 2 270 35.4 48.3 0.00 0.00 0.00 92 847.7
20200530173339 2 269 41.8 46.7 0.00 0.00 0.00 92 847.7
20200530173239 2 262 45.1 51.5 0.00 0.00 0.00 92 847.7
20200530173139 2 279 43.5 54.7 0.00 0.00 0.00 92 847.7
20200530173039 2 245 41.8 43.5 0.00 0.00 0.00 92 847.8
20200530172941 2 281 30.6 41.8 0.00 0.00 0.00 92 847.7
20200530172839 2 252 40.2 43.5 0.00 0.00 0.00 92 847.8
20200530172739 2 261 30.6 33.8 0.00 0.00 0.00 92 848.1
20200530172639 2 285 30.6 38.6 0.00 0.00 0.00 91 847.8
20200530172539 2 267 38.6 46.7 0.00 0.00 0.00 91 847.7
20200530172439 2 272 38.6 41.8 0.00 0.00 0.00 91 847.5
20200530172339 2 270 29.0 40.2 0.00 0.00 0.00 91 847.8
20200530172239 2 269 32.2 46.7 0.00 0.00 0.00 92 847.9
20200530172139 2 274 20.9 29.0 0.00 0.00 0.00 92 847.9
20200530172039 2 262 43.5 49.9 0.00 0.00 0.00 92 847.5
20200530171939 2 274 29.0 43.5 0.00 0.00 0.00 92 847.7
20200530171839 2 269 53.1 61.2 0.00 0.00 0.00 92 847.3
20200530171739 2 265 40.2 46.7 0.00 0.00 0.00 92 847.7
20200530171639 2 277 49.9 53.1 0.00 0.00 0.00 92 847.5
20200530171539 2 272 54.7 61.2 0.00 0.00 0.00 92 847.3
20200530171439 2 269 37.0 41.8 0.00 0.00 0.00 92 847.7
20200530171339 2 272 30.6 37.0 0.00 0.00 0.00 92 847.5
20200530171239 2 287 35.4 51.5 0.00 0.00 0.00 92 847.8
20200530171139 2 287 19.3 22.5 0.00 0.00 0.00 92 848.1
20200530171039 2 262 30.6 45.1 0.00 0.00 0.00 92 847.8
20200530170939 2 267 40.2 46.7 0.00 0.00 0.00 92 847.7
20200530170838 2 271 24.1 40.2 0.00 0.00 0.00 93 847.7
20200530170739 2 270 33.8 41.8 0.00 0.00 0.00 93 847.7
20200530170638 2 272 32.2 38.6 0.00 0.00 0.00 93 847.7
20200530170538 2 237 27.4 40.2 0.00 0.00 0.00 93 847.9
20200530170439 2 283 32.2 38.6 0.00 0.00 0.00 93 847.8
20200530170338 2 292 43.5 53.1 0.00 0.00 0.00 93 847.5
20200530170238 2 272 9.7 19.3 0.00 0.00 0.00 92 847.9
20200530170139 2 291 16.1 29.0 0.00 0.00 0.00 91 848.1
20200530170039 2 322 30.6 40.2 0.00 0.00 0.00 91 847.7
20200530165938 2 304 40.2 46.7 0.00 0.00 0.00 90 847.4
20200530165839 2 318 27.4 29.0 0.00 0.00 0.00 90 847.8
20200530165739 2 284 19.3 25.7 0.00 0.00 0.00 89 847.9
20200530165639 2 272 12.9 17.7 0.00 0.00 0.00 88 848.1
20200530165539 2 252 19.3 25.7 0.00 0.00 0.00 88 847.9
20200530165439 2 266 19.3 25.7 0.00 0.00 0.00 87 848.1
20200530165338 2 270 45.1 53.1 0.00 0.00 0.00 87 847.4
20200530165239 2 279 9.7 12.9 0.00 0.00 0.00 88 848.1
20200530165139 2 260 22.5 25.7 0.00 0.00 0.00 88 847.9
20200530165039 2 329 14.5 16.1 0.00 0.00 0.00 88 848.1
20200530164939 2 331 25.7 29.0 0.00 0.00 0.00 88 847.9
20200530164838 2 298 17.7 22.5 0.00 0.00 0.00 88 848.1
20200530164739 2 275 24.1 30.6 0.00 0.00 0.00 87 848.1
20200530164638 2 292 30.6 38.6 0.00 0.00 0.00 87 847.9
20200530164539 2 353 9.7 14.5 0.00 0.00 0.00 86 848.2
20200530164439 2 288 25.7 30.6 0.00 0.00 0.00 87 848.1
20200530164339 2 265 19.3 24.1 0.00 0.00 0.00 87 848.2
20200530164238 2 268 27.4 37.0 0.00 0.00 0.00 87 848.1
20200530164139 2 267 32.2 37.0 0.00 0.00 0.00 86 848.1
20200530164039 2 275 27.4 30.6 0.00 0.00 0.00 85 848.1
20200530163940 2 272 33.8 37.0 0.00 0.00 0.00 85 847.9
20200530163839 2 262 27.4 32.2 0.00 0.00 0.00 85 848.1
20200530163738 2 297 33.8 43.5 0.00 0.00 0.00 85 847.9
20200530163638 2 245 17.7 20.9 0.00 0.00 0.00 85 848.2
20200530163438 2 263 20.9 24.1 0.00 0.00 0.00 85 848.1
20200530163339 2 260 35.4 40.2 0.00 0.00 0.00 84 847.7
20200530163238 2 268 33.8 41.8 0.00 0.00 0.00 84 847.8
20200530163139 2 275 45.1 51.5 0.00 0.00 0.00 84 847.7
20200530163038 2 261 27.4 38.6 0.00 0.00 0.00 85 847.8
20200530162939 2 269 40.2 51.5 0.00 0.00 0.00 85 847.7
20200530162838 2 260 30.6 37.0 0.00 0.00 0.00 83 847.9
20200530162739 2 271 32.2 40.2 0.00 0.00 0.00 83 847.7
20200530162638 2 277 27.4 35.4 0.00 0.00 0.00 84 847.9
20200530162538 2 276 29.0 40.2 0.00 0.00 0.00 83 847.9
20200530162438 2 279 32.2 46.7 0.00 0.00 0.00 83 847.8
20200530162339 2 260 22.5 25.7 0.00 0.00 0.00 82 847.9
20200530162238 2 274 43.5 46.7 0.00 0.00 0.00 82 847.5
20200530162139 2 288 37.0 43.5 0.00 0.00 0.00 82 847.9
20200530162038 2 276 30.6 46.7 0.00 0.00 0.00 82 847.8
20200530161939 2 295 41.8 51.5 0.00 0.00 0.00 81 847.7
20200530161838 2 296 41.8 46.7 0.00 0.00 0.00 81 847.7
20200530161739 2 282 43.5 48.3 0.00 0.00 0.00 80 847.5
20200530161639 2 285 37.0 51.5 0.00 0.00 0.00 82 847.8
20200530161538 2 274 40.2 45.1 0.00 0.00 0.00 81 847.7
20200530161439 2 260 22.5 30.6 0.00 0.00 0.00 82 847.9
20200530161338 2 277 24.1 29.0 0.00 0.00 0.00 80 847.8
20200530161239 2 284 37.0 49.9 0.00 0.00 0.00 79 847.4
20200530161139 2 267 38.6 43.5 0.00 0.00 0.00 80 847.7
20200530161038 2 281 41.8 48.3 0.00 0.00 0.00 77 847.7
20200530160938 3 276 43.5 48.3 0.00 0.00 0.00 78 847.7
20200530160838 3 271 40.2 49.9 0.00 0.00 0.00 76 847.5
20200530160739 3 283 45.1 56.3 0.00 0.00 0.00 75 847.7
20200530160638 3 274 43.5 54.7 0.00 0.00 0.00 75 847.5
20200530160539 3 271 45.1 54.7 0.00 0.00 0.00 76 847.3
20200530160439 3 277 37.0 48.3 0.00 0.00 0.00 76 847.7
20200530160338 3 278 51.5 54.7 0.00 0.00 0.00 75 847.3
20200530160239 3 278 37.0 45.1 0.00 0.00 0.00 74 847.7
20200530160139 3 280 37.0 43.5 0.00 0.00 0.00 76 847.5
20200530160038 3 286 46.7 53.1 0.00 0.00 0.00 75 847.7
20200530155938 3 280 46.7 51.5 0.00 0.00 0.00 75 847.3
20200530155838 3 269 29.0 33.8 0.00 0.00 0.00 77 847.7
20200530155739 2 278 30.6 35.4 0.00 0.00 0.00 79 847.8
20200530155639 2 277 37.0 43.5 0.00 0.00 0.00 78 847.7
20200530155539 2 267 35.4 40.2 0.00 0.00 0.00 75 847.7
20200530155439 2 287 37.0 46.7 0.00 0.00 0.00 77 847.7
20200530155339 3 264 38.6 45.1 0.00 0.00 0.00 75 847.5
20200530155238 3 264 46.7 53.1 0.00 0.00 0.00 76 847.3
20200530155139 3 280 29.0 33.8 0.00 0.00 0.00 76 847.5
20200530155039 3 260 40.2 49.9 0.00 0.00 0.00 77 847.7
20200530154938 3 276 29.0 37.0 0.00 0.00 0.00 77 847.5
20200530154838 3 282 38.6 45.1 0.00 0.00 0.00 75 847.7
20200530154738 3 271 27.4 41.8 0.00 0.00 0.00 76 847.7
20200530154639 2 286 32.2 40.2 0.00 0.00 0.00 74 847.4
20200530154539 2 277 32.2 46.7 0.00 0.00 0.00 76 847.4
20200530154439 2 282 35.4 41.8 0.00 0.00 0.00 76 847.4
20200530154339 2 272 38.6 45.1 0.00 0.00 0.00 76 847.3
20200530154238 2 259 41.8 49.9 0.00 0.00 0.00 76 847.4
20200530154138 2 279 32.2 37.0 0.00 0.00 0.00 77 847.7
20200530154039 2 268 43.5 46.7 0.00 0.00 0.00 77 847.5
20200530153938 2 276 30.6 43.5 0.00 0.00 0.00 77 847.3
20200530153838 2 274 45.1 51.5 0.00 0.00 0.00 76 847.3
20200530153739 2 276 38.6 48.3 0.00 0.00 0.00 75 847.3
20200530153638 2 274 43.5 49.9 0.00 0.00 0.00 75 847.3
20200530153538 3 266 43.5 49.9 0.00 0.00 0.00 75 847.3
20200530153439 3 282 46.7 56.3 0.00 0.00 0.00 73 847.1
20200530153338 3 280 38.6 54.7 0.00 0.00 0.00 72 847.3
20200530153239 3 268 37.0 43.5 0.00 0.00 0.00 72 847.4
20200530153139 3 283 40.2 46.7 0.00 0.00 0.00 72 847.4
20200530153038 3 279 35.4 48.3 0.00 0.00 0.00 72 847.4
20200530152939 2 270 46.7 53.1 0.00 0.00 0.00 73 847.1
20200530152839 2 269 35.4 40.2 0.00 0.00 0.00 75 847.3
20200530152739 2 284 35.4 38.6 0.00 0.00 0.00 72 847.5
20200530152638 2 277 38.6 41.8 0.00 0.00 0.00 73 847.3
20200530152538 2 279 37.0 49.9 0.00 0.00 0.00 76 847.4
20200530152438 2 287 38.6 45.1 0.00 0.00 0.00 77 847.5
20200530152338 2 272 33.8 41.8 0.00 0.00 0.00 77 847.5
20200530152238 2 280 33.8 41.8 0.00 0.00 0.00 76 847.5
20200530152139 2 276 48.3 54.7 0.00 0.00 0.00 76 847.1
20200530152038 2 280 35.4 46.7 0.00 0.00 0.00 76 847.5
20200530151940 2 268 32.2 43.5 0.00 0.00 0.00 74 847.5
20200530151838 2 270 40.2 46.7 0.00 0.00 0.00 78 847.3
20200530151738 2 274 49.9 54.7 0.00 0.00 0.00 75 847.3
20200530151639 2 284 33.8 41.8 0.00 0.00 0.00 77 847.1
20200530151539 2 263 40.2 54.7 0.00 0.00 0.00 77 847.3
20200530151440 2 276 49.9 56.3 0.00 0.00 0.00 79 847.1
20200530151339 2 275 38.6 46.7 0.00 0.00 0.00 79 847.3
20200530151239 2 284 46.7 53.1 0.00 0.00 0.00 80 847.3
20200530151139 2 279 48.3 56.3 0.00 0.00 0.00 81 847.1
20200530151039 2 284 56.3 62.8 0.00 0.00 0.00 81 847.1
20200530150938 2 273 24.1 32.2 0.00 0.00 0.00 83 847.7
20200530150839 2 276 38.6 48.3 0.00 0.00 0.00 82 847.4
20200530150738 2 286 51.5 56.3 0.00 0.00 0.00 82 847.4
20200530150638 2 291 32.2 46.7 0.00 0.00 0.00 82 847.5
20200530150538 2 276 35.4 49.9 0.00 0.00 0.00 81 847.4
20200530150438 2 280 41.8 54.7 0.00 0.00 0.00 80 847.3
20200530150339 2 279 41.8 45.1 0.00 0.00 0.00 82 847.7
20200530150238 2 285 38.6 53.1 0.00 0.00 0.00 79 847.4
20200530150138 2 263 51.5 62.8 0.00 0.00 0.00 82 846.9
20200530150038 2 274 35.4 45.1 0.00 0.00 0.00 83 847.5
20200530145938 2 269 45.1 53.1 0.00 0.00 0.00 82 847.0
20200530145838 2 282 45.1 51.5 0.00 0.00 0.00 82 847.3
20200530145738 2 280 38.6 46.7 0.00 0.00 0.00 80 847.3
20200530145638 2 272 41.8 51.5 0.00 0.00 0.00 80 847.3
20200530145538 2 287 30.6 38.6 0.00 0.00 0.00 79 847.7
20200530145438 2 269 29.0 38.6 0.00 0.00 0.00 78 847.7
20200530145338 2 276 40.2 49.9 0.00 0.00 0.00 76 847.3
20200530145238 2 282 49.9 59.5 0.00 0.00 0.00 78 847.0
20200530145138 2 262 48.3 54.7 0.00 0.00 0.00 77 847.3
20200530145038 2 269 33.8 40.2 0.00 0.00 0.00 78 847.3
20200530144938 3 280 33.8 45.1 0.00 0.00 0.00 79 847.5
20200530144838 3 281 37.0 54.7 0.00 0.00 0.00 76 847.5
20200530144738 3 281 51.5 54.7 0.00 0.00 0.00 74 847.4
20200530144638 3 270 49.9 57.9 0.00 0.00 0.00 74 847.1
20200530144538 3 272 46.7 59.5 0.00 0.00 0.00 74 846.9
20200530144438 2 285 35.4 38.6 0.00 0.00 0.00 74 847.7
20200530144338 2 282 43.5 54.7 0.00 0.00 0.00 72 847.4
20200530144238 2 279 45.1 51.5 0.00 0.00 0.00 77 847.3
20200530144138 2 270 37.0 43.5 0.00 0.00 0.00 77 847.4
20200530144038 2 288 43.5 48.3 0.00 0.00 0.00 78 847.5
20200530143938 2 282 45.1 56.3 0.00 0.00 0.00 79 847.3
20200530143838 2 271 37.0 45.1 0.00 0.00 0.00 80 847.4
20200530143738 2 278 32.2 37.0 0.00 0.00 0.00 81 847.7
20200530143639 2 259 33.8 38.6 0.00 0.00 0.00 80 847.7
20200530143538 2 282 38.6 51.5 0.00 0.00 0.00 81 847.4
20200530143438 2 264 40.2 45.1 0.00 0.00 0.00 81 847.4
20200530143338 2 277 38.6 45.1 0.00 0.00 0.00 82 847.4
20200530143238 2 277 33.8 43.5 0.00 0.00 0.00 82 847.7
20200530143138 2 277 38.6 48.3 0.00 0.00 0.00 83 847.4
20200530143038 2 263 40.2 46.7 0.00 0.00 0.00 82 847.5
20200530142938 2 278 27.4 33.8 0.00 0.00 0.00 82 847.5
20200530142838 2 272 38.6 49.9 0.00 0.00 0.00 81 847.3
20200530142738 2 286 49.9 56.3 0.00 0.00 0.00 81 847.4
20200530142638 2 283 46.7 56.3 0.00 0.00 0.00 81 847.3
20200530142538 2 284 40.2 49.9 0.00 0.00 0.00 82 847.5
20200530142438 2 275 43.5 46.7 0.00 0.00 0.00 84 847.5
20200530142338 2 274 27.4 37.0 0.00 0.00 0.00 83 847.3
20200530142238 2 286 20.9 30.6 0.00 0.00 0.00 84 847.8
20200530142138 2 281 49.9 56.3 0.00 0.00 0.00 84 847.3
20200530142038 2 256 33.8 43.5 0.00 0.00 0.00 84 847.5
20200530141938 2 279 33.8 40.2 0.00 0.00 0.00 84 847.4
20200530141838 2 278 30.6 41.8 0.00 0.00 0.00 83 847.7
20200530141739 2 275 32.2 43.5 0.00 0.00 0.00 83 847.8
20200530141638 2 261 43.5 45.1 0.00 0.00 0.00 84 847.5
20200530141539 2 271 32.2 49.9 0.00 0.00 0.00 83 847.7
20200530141438 2 281 43.5 57.9 0.00 0.00 0.00 82 847.3
20200530141338 2 269 43.5 53.1 0.00 0.00 0.00 82 847.4
20200530141238 2 271 46.7 56.3 0.00 0.00 0.00 84 847.3
20200530141138 2 282 53.1 64.4 0.00 0.00 0.00 85 846.9
20200530141039 2 271 48.3 54.7 0.00 0.00 0.00 84 847.3
20200530140938 2 279 41.8 54.7 0.00 0.00 0.00 81 847.1
20200530140838 2 284 53.1 59.5 0.00 0.00 0.00 80 847.1
20200530140738 2 282 43.5 49.9 0.00 0.00 0.00 79 847.4
20200530140638 2 271 43.5 46.7 0.00 0.00 0.00 75 847.3
20200530140538 2 285 43.5 56.3 0.00 0.00 0.00 77 847.5
20200530140438 2 283 48.3 61.2 0.00 0.00 0.00 78 847.1
20200530140338 2 276 48.3 53.1 0.00 0.00 0.00 78 847.3
20200530140238 2 278 48.3 59.5 0.00 0.00 0.00 74 847.1
20200530140138 2 282 40.2 51.5 0.00 0.00 0.00 78 847.3
20200530140038 2 283 40.2 45.1 0.00 0.00 0.00 77 847.5
20200530135938 2 266 32.2 48.3 0.00 0.00 0.00 77 847.5
20200530135838 2 276 46.7 49.9 0.00 0.00 0.00 79 847.4
20200530135738 2 271 46.7 51.5 0.00 0.00 0.00 79 847.4
20200530135638 2 280 40.2 45.1 0.00 0.00 0.00 78 847.5
20200530135538 2 276 32.2 35.4 0.00 0.00 0.00 80 847.7
20200530135438 2 280 22.5 27.4 0.00 0.00 0.00 81 847.7
20200530135338 2 257 30.6 37.0 0.00 0.00 0.00 83 847.7
20200530135238 2 270 33.8 43.5 0.00 0.00 0.00 86 847.7
20200530135140 2 265 30.6 43.5 0.00 0.00 0.00 85 847.7
20200530135038 2 275 38.6 46.7 0.00 0.00 0.00 86 847.5
20200530134938 2 288 40.2 46.7 0.00 0.00 0.00 87 847.8
20200530134838 2 285 38.6 41.8 0.00 0.00 0.00 86 847.8
20200530134738 2 283 37.0 43.5 0.00 0.00 0.00 85 847.9
20200530134638 2 267 37.0 41.8 0.00 0.00 0.00 88 847.4
20200530134538 2 278 24.1 30.6 0.00 0.00 0.00 87 847.9
20200530134438 2 283 19.3 35.4 0.00 0.00 0.00 87 848.1
20200530134338 2 270 20.9 27.4 0.00 0.00 0.00 87 848.1
20200530134238 2 251 30.6 32.2 0.00 0.00 0.00 86 847.9
20200530134138 2 263 37.0 45.1 0.00 0.00 0.00 86 847.7
20200530134038 2 280 24.1 38.6 0.00 0.00 0.00 85 847.8
20200530133938 2 281 37.0 46.7 0.00 0.00 0.00 84 847.7
20200530133838 2 269 24.1 33.8 0.00 0.00 0.00 84 847.9
20200530133738 2 280 45.1 53.1 0.00 0.00 0.00 84 847.4
20200530133638 2 273 27.4 35.4 0.00 0.00 0.00 86 847.9
20200530133538 2 278 29.0 41.8 0.00 0.00 0.00 87 847.8
20200530133438 2 291 30.6 41.8 0.00 0.00 0.00 88 847.8
20200530133338 2 284 29.0 35.4 0.00 0.00 0.00 88 848.1
20200530133238 2 286 38.6 46.7 0.00 0.00 0.00 87 847.9
20200530133138 2 273 32.2 35.4 0.00 0.00 0.00 87 847.9
20200530133038 2 280 45.1 49.9 0.00 0.00 0.00 86 847.7
20200530132938 2 286 41.8 48.3 0.00 0.00 0.00 85 847.7
20200530132838 2 270 32.2 46.7 0.00 0.00 0.00 86 847.4
20200530132738 2 272 29.0 35.4 0.00 0.00 0.00 86 847.8
20200530132638 2 276 37.0 46.7 0.00 0.00 0.00 84 847.5
20200530132538 2 278 45.1 48.3 0.00 0.00 0.00 85 847.3
20200530132438 2 272 49.9 57.9 0.00 0.00 0.00 87 847.3
20200530132338 2 293 33.8 41.8 0.00 0.00 0.00 88 847.7
20200530132238 2 277 33.8 43.5 0.00 0.00 0.00 90 847.8
20200530132138 2 266 41.8 46.7 0.00 0.00 0.00 91 847.7
20200530132038 2 281 27.4 33.8 0.00 0.00 0.00 93 847.9
20200530131938 2 276 27.4 32.2 0.00 0.00 0.00 93 847.9
20200530131838 2 290 30.6 37.0 0.00 0.00 0.00 94 848.1
20200530131738 2 263 30.6 32.2 0.00 0.00 0.00 94 847.9
20200530131640 2 273 25.7 33.8 0.00 0.00 0.00 94 848.1
20200530131538 2 251 20.9 25.7 0.00 0.00 0.00 93 848.1
20200530131439 2 280 29.0 33.8 0.00 0.00 0.00 93 847.8
20200530131229 2 280 30.6 41.8 0.00 0.00 0.00 94 847.8
20200530131129 2 260 33.8 40.2 0.00 0.00 0.00 94 847.8
20200530131029 2 273 24.1 35.4 0.00 0.00 0.00 94 847.9
20200530130929 2 278 29.0 37.0 0.00 0.00 0.00 94 847.9
20200530130829 2 283 30.6 38.6 0.00 0.00 0.00 94 847.8
20200530130729 2 282 48.3 53.1 0.00 0.00 0.00 93 847.5
20200530130628 2 276 22.5 33.8 0.00 0.00 0.00 94 847.9
20200530130529 2 268 30.6 37.0 0.00 0.00 0.00 93 847.8
20200530130428 2 275 27.4 30.6 0.00 0.00 0.00 93 847.9
20200530130329 2 280 32.2 45.1 0.00 0.00 0.00 92 847.7
20200530130228 2 292 32.2 38.6 0.00 0.00 0.00 91 847.9
20200530130129 2 289 27.4 32.2 0.00 0.00 0.00 91 848.1
20200530130029 3 280 35.4 45.1 0.00 0.00 0.00 91 847.9
20200530125929 3 295 22.5 29.0 0.00 0.00 0.00 92 848.1
20200530125829 3 279 25.7 29.0 0.00 0.00 0.00 91 848.1
20200530125729 3 319 17.7 29.0 0.00 0.00 0.00 92 848.1
20200530125634 3 258 14.5 17.7 0.00 0.00 0.00 91 848.1
20200530125627 3 262 17.7 22.5 0.00 0.00 0.00 91 848.1
20200530125534 3 262 17.7 25.7 0.00 0.00 0.00 91 848.1
20200530125527 3 251 12.9 16.1 0.00 0.00 0.00 91 848.1
20200530125434 3 276 20.9 29.0 0.00 0.00 0.00 91 848.1
20200530125427 3 274 19.3 30.6 0.00 0.00 0.00 91 848.1
20200530125334 3 282 30.6 32.2 0.00 0.00 0.00 92 847.9
20200530125327 3 285 30.6 33.8 0.00 0.00 0.00 92 847.9
20200530125234 3 272 19.3 24.1 0.00 0.00 0.00 91 847.9
20200530125227 3 283 17.7 24.1 0.00 0.00 0.00 91 848.1
20200530125134 3 267 19.3 27.4 0.00 0.00 0.00 92 847.9
20200530125127 3 266 17.7 19.3 0.00 0.00 0.00 92 848.1
20200530125035 3 275 19.3 22.5 0.00 0.00 0.00 91 848.1
20200530125027 3 278 19.3 20.9 0.00 0.00 0.00 92 848.1
20200530124935 3 257 19.3 24.1 0.00 0.00 0.00 92 848.1
20200530124928 3 265 16.1 22.5 0.00 0.00 0.00 92 848.1
20200530124705 3 295 9.7 14.5 0.00 0.00 0.00 93 848.1
20200530124605 2 265 20.9 27.4 0.00 0.00 0.00 93 847.9
20200530124505 2 263 17.7 25.7 0.00 0.00 0.00 91 848.1
20200530124405 2 260 20.9 29.0 0.00 0.00 0.00 91 848.1
20200530124305 3 277 41.8 46.7 0.00 0.00 0.00 91 847.7
20200530124205 3 274 30.6 35.4 0.00 0.00 0.00 92 847.8
20200530124105 3 267 20.9 25.7 0.00 0.00 0.00 91 847.9
20200530124005 3 257 29.0 37.0 0.00 0.00 0.00 90 847.9
20200530123905 3 275 32.2 37.0 0.00 0.00 0.00 91 847.7
20200530123805 3 284 12.9 20.9 0.00 0.00 0.00 90 848.1
20200530123705 3 325 22.5 25.7 0.00 0.00 0.00 89 848.1
20200530123605 3 273 12.9 14.5 0.00 0.00 0.00 82 848.1
20200530123506 3 284 32.2 38.6 0.00 0.00 0.00 91 847.9
20200530090316 1 292 17.7 29.0 0.00 0.28 0.00 10 848.3
20200530090216 1 285 27.4 33.8 0.00 0.28 0.00 10 848.2
20200530090115 1 263 20.9 27.4 0.00 0.28 0.00 10 848.2
20200530090015 1 282 30.6 37.0 0.00 0.28 0.00 10 848.2
20200530085916 1 277 32.2 37.0 0.00 0.28 0.00 10 848.1
20200530085815 1 257 29.0 32.2 0.00 0.28 0.00 10 848.2
20200530085716 1 251 33.8 35.4 0.00 0.28 0.00 10 848.1
20200530085615 1 267 25.7 30.6 0.00 0.28 0.00 10 848.2
20200530085515 1 261 27.4 32.2 0.00 0.28 0.00 10 848.2
20200530085416 1 286 33.8 41.8 0.00 0.28 0.00 10 848.2
20200530085315 1 273 38.6 45.1 0.00 0.28 0.00 10 847.9
20200530085216 1 285 27.4 30.6 0.00 0.28 0.00 10 848.2
20200530085116 1 274 32.2 40.2 0.00 0.28 0.00 10 847.8
20200530085016 1 272 17.7 29.0 0.00 0.28 0.00 10 848.3
20200530084915 1 270 25.7 37.0 0.00 0.28 0.00 10 847.9
20200530084815 1 292 43.5 49.9 0.00 0.28 0.00 10 847.9
20200530084715 1 273 37.0 46.7 0.00 0.28 0.00 10 847.7
20200530084615 1 289 25.7 29.0 0.00 0.28 0.00 10 848.2
20200530084515 1 273 33.8 40.2 0.00 0.28 0.00 10 847.9
20200530084415 1 280 32.2 37.0 0.00 0.28 0.00 10 848.1
20200530084316 1 280 32.2 41.8 0.00 0.28 0.00 10 848.2
20200530084215 1 273 33.8 37.0 0.00 0.28 0.00 10 848.1
20200530084115 1 284 25.7 37.0 0.00 0.28 0.00 10 848.2
20200530084016 1 276 51.5 54.7 0.00 0.28 0.00 10 847.7
20200530083915 1 286 30.6 35.4 0.00 0.28 0.00 10 848.2
20200530083815 1 263 27.4 29.0 0.00 0.28 0.00 10 848.2
20200530083715 1 311 17.7 20.9 0.00 0.28 0.00 10 848.3
20200530083615 1 261 16.1 20.9 0.00 0.28 0.00 10 848.5
20200530083515 1 259 12.9 22.5 0.00 0.28 0.00 10 848.3
20200530083415 1 248 29.0 37.0 0.00 0.28 0.00 10 848.1
20200530083315 1 325 22.5 33.8 0.00 0.28 0.00 10 848.2
20200530083215 1 285 40.2 43.5 0.00 0.28 0.00 10 847.9
20200530083115 1 285 30.6 37.0 0.00 0.28 0.00 10 848.1
20200530083015 1 252 32.2 37.0 0.00 0.28 0.00 10 848.1
20200530082915 1 259 32.2 35.4 0.00 0.28 0.00 10 847.9
20200530082815 0 265 40.2 46.7 0.00 0.28 0.00 10 847.7
20200530082715 0 253 32.2 37.0 0.00 0.28 0.00 10 848.1
20200530082615 1 286 30.6 43.5 0.00 0.28 0.00 10 847.9
20200530082515 1 276 35.4 43.5 0.00 0.28 0.00 10 847.8
20200530082415 1 245 49.9 53.1 0.00 0.28 0.00 10 847.7
20200530082315 1 262 40.2 48.3 0.00 0.28 0.00 10 847.8
20200530082216 1 275 35.4 41.8 0.00 0.28 0.00 10 847.9
20200530082116 1 288 38.6 46.7 0.00 0.28 0.00 10 847.8
20200530082016 1 253 35.4 38.6 0.00 0.28 0.00 10 848.1
20200530081915 1 270 43.5 49.9 0.00 0.28 0.00 10 847.7
20200530081715 1 276 30.6 46.7 0.00 0.28 0.00 10 847.8
20200530081615 1 277 30.6 33.8 0.00 0.28 0.00 10 847.7
20200530081515 1 270 24.1 30.6 0.00 0.28 0.00 10 847.9
20200530081415 1 255 29.0 32.2 0.00 0.28 0.00 10 848.1
20200530081331 1 260 46.7 54.7 0.00 0.28 0.00 10 847.5
20200530081115 1 274 32.2 40.2 0.00 0.28 0.00 10 847.9
20200530081015 1 284 41.8 53.1 0.00 0.28 0.00 10 847.5
20200530080915 1 262 37.0 43.5 0.00 0.28 0.00 10 847.8
20200530080815 1 262 25.7 32.2 0.00 0.28 0.00 10 848.1
20200530080716 1 267 41.8 51.5 0.00 0.28 0.00 10 847.5
20200530080615 1 258 38.6 45.1 0.00 0.28 0.00 10 847.8
20200530080516 1 272 38.6 48.3 0.00 0.28 0.00 10 847.4
20200530080415 1 264 43.5 51.5 0.00 0.28 0.00 10 847.5
20200530080315 1 260 27.4 38.6 0.00 0.28 0.00 10 847.8
20200530080215 1 284 22.5 33.8 0.00 0.28 0.00 10 848.1
20200530080116 1 265 11.3 16.1 0.00 0.28 0.00 10 848.1
20200530080016 1 276 20.9 29.0 0.00 0.28 0.00 10 847.7
20200530075915 1 282 35.4 43.5 0.00 0.28 0.00 10 847.7
20200530075815 1 257 38.6 45.1 0.00 0.28 0.00 10 847.7
20200530075715 1 262 45.1 51.5 0.00 0.28 0.00 10 847.4
20200530075615 1 266 22.5 32.2 0.00 0.28 0.00 10 847.9
20200530075515 1 249 29.0 32.2 0.00 0.28 0.00 10 847.9
20200530075415 1 258 33.8 40.2 0.00 0.28 0.00 10 847.8
20200530075315 1 256 35.4 40.2 0.00 0.28 0.00 10 847.7
20200530075215 1 265 33.8 40.2 0.00 0.28 0.00 10 847.8
20200530075115 1 277 25.7 37.0 0.00 0.28 0.00 10 847.7
20200530075015 1 255 27.4 30.6 0.00 0.28 0.00 10 847.9
20200530074915 1 267 30.6 35.4 0.00 0.28 0.00 10 847.8
20200530074815 1 262 20.9 25.7 0.00 0.28 0.00 10 848.1
20200530074715 1 282 25.7 37.0 0.00 0.28 0.00 10 847.7
20200530074615 1 283 27.4 41.8 0.00 0.28 0.00 10 847.9
20200530074515 1 291 38.6 46.7 0.00 0.28 0.00 10 847.7
20200530074415 1 282 22.5 27.4 0.00 0.28 0.00 10 847.8
20200530074315 1 290 25.7 32.2 0.00 0.28 0.00 10 847.9
20200530074215 1 275 38.6 43.5 0.00 0.28 0.00 10 847.7
20200530074116 1 277 24.1 41.8 0.00 0.28 0.00 10 847.7
20200530074015 1 277 32.2 43.5 0.00 0.28 0.00 10 847.5
20200530073915 1 284 35.4 41.8 0.00 0.28 0.00 10 847.8
20200530073815 1 265 41.8 46.7 0.00 0.28 0.00 10 847.4
20200530073715 1 284 27.4 35.4 0.00 0.28 0.00 10 847.7
20200530073615 1 284 33.8 41.8 0.00 0.28 0.00 10 847.4
20200530073515 1 277 33.8 40.2 0.00 0.28 0.00 10 847.5
20200530073415 1 269 32.2 41.8 0.00 0.28 0.00 10 847.7
20200530073315 1 263 46.7 51.5 0.00 0.28 0.00 10 847.3
20200530073215 1 273 43.5 56.3 0.00 0.28 0.00 10 847.4
20200530073115 1 262 41.8 49.9 0.00 0.28 0.00 10 847.3
20200530073015 1 276 35.4 43.5 0.00 0.28 0.00 10 847.4
20200530072915 1 259 29.0 33.8 0.00 0.28 0.00 10 847.8
20200530072815 1 279 37.0 49.9 0.00 0.28 0.00 10 847.4
20200530072715 1 266 38.6 48.3 0.00 0.28 0.00 10 847.5